2016 Cux-Wetter.de -Die Nutzung der Wetterdaten nur mit ausdrcklicher Genehmigung
Wetterdaten: Donnerstag, 01.02.2018
Datum Zeit Temp. A. Feuchte A. Luftdruck Regen Wind Richtung Richtung Sonnenschein Solar Taupunkt Windchill Windben
01.02.2018 00:00 3,5 C 90 % 993,0 hPa 0,0 l/m 16,4 km/h (3 Bft) SW 227 0 min 0 W/m 2,0 C -3,5 C 22,5 km/h (4 Bft)
01.02.2018 00:03 3,4 C 90 % 993,0 hPa 0,0 l/m 18,6 km/h (3 Bft) S-SW 213 0 min 0 W/m 1,9 C -4,6 C 27,4 km/h (5 Bft)
01.02.2018 00:06 3,4 C 90 % 993,1 hPa 0,0 l/m 17,7 km/h (3 Bft) S-SW 194 0 min 0 W/m 1,9 C -4,2 C 22,5 km/h (4 Bft)
01.02.2018 00:09 3,3 C 90 % 993,1 hPa 0,0 l/m 19,3 km/h (3 Bft) SW 229 0 min 0 W/m 1,8 C -5,1 C 25,7 km/h (4 Bft)
01.02.2018 00:12 3,3 C 90 % 993,0 hPa 0,0 l/m 17,3 km/h (3 Bft) S-SW 213 0 min 0 W/m 1,8 C -4,2 C 27,4 km/h (5 Bft)
01.02.2018 00:15 3,3 C 90 % 993,0 hPa 0,0 l/m 21,9 km/h (4 Bft) SW 214 0 min 0 W/m 1,8 C -6,1 C 30,6 km/h (5 Bft)
01.02.2018 00:18 3,3 C 90 % 993,0 hPa 0,0 l/m 23,6 km/h (4 Bft) SW 229 0 min 0 W/m 1,8 C -6,8 C 38,6 km/h (6 Bft)
01.02.2018 00:21 3,3 C 90 % 993,0 hPa 0,0 l/m 19,7 km/h (3 Bft) SW 232 0 min 0 W/m 1,8 C -5,2 C 30,6 km/h (5 Bft)
01.02.2018 00:24 3,2 C 90 % 993,0 hPa 0,0 l/m 19,1 km/h (3 Bft) SW 236 0 min 0 W/m 1,7 C -5,1 C 29,0 km/h (5 Bft)
01.02.2018 00:27 3,2 C 90 % 993,0 hPa 0,0 l/m 17,4 km/h (3 Bft) SW 221 0 min 0 W/m 1,7 C -4,3 C 32,2 km/h (5 Bft)
01.02.2018 00:30 3,2 C 91 % 993,0 hPa 0,0 l/m 19,7 km/h (3 Bft) SW 229 0 min 0 W/m 1,9 C -5,4 C 27,4 km/h (5 Bft)
01.02.2018 00:33 3,1 C 91 % 993,1 hPa 0,0 l/m 18,7 km/h (3 Bft) W-SW 250 0 min 0 W/m 1,8 C -5,1 C 24,1 km/h (4 Bft)
01.02.2018 00:36 3,1 C 91 % 993,1 hPa 0,0 l/m 20,1 km/h (4 Bft) S-SW 202 0 min 0 W/m 1,8 C -5,7 C 29,0 km/h (5 Bft)
01.02.2018 00:39 3,1 C 91 % 993,2 hPa 0,0 l/m 21,4 km/h (4 Bft) S-SW 207 0 min 0 W/m 1,8 C -6,2 C 30,6 km/h (5 Bft)
01.02.2018 00:42 3,1 C 91 % 993,1 hPa 0,0 l/m 18,4 km/h (3 Bft) S-SW 207 0 min 0 W/m 1,8 C -4,9 C 25,7 km/h (4 Bft)
01.02.2018 00:45 3,1 C 91 % 993,1 hPa 0,0 l/m 21,7 km/h (4 Bft) S-SW 211 0 min 0 W/m 1,8 C -6,3 C 30,6 km/h (5 Bft)
01.02.2018 00:48 3,1 C 91 % 993,2 hPa 0,0 l/m 19,0 km/h (3 Bft) S 191 0 min 0 W/m 1,8 C -5,2 C 29,0 km/h (5 Bft)
01.02.2018 00:51 3,1 C 91 % 993,2 hPa 0,0 l/m 21,7 km/h (4 Bft) SW 221 0 min 0 W/m 1,8 C -6,3 C 32,2 km/h (5 Bft)
01.02.2018 00:54 3,1 C 91 % 993,1 hPa 0,0 l/m 22,1 km/h (4 Bft) SW 232 0 min 0 W/m 1,8 C -6,5 C 37,0 km/h (5 Bft)
01.02.2018 00:57 3,1 C 90 % 993,1 hPa 0,0 l/m 20,0 km/h (4 Bft) SW 222 0 min 0 W/m 1,6 C -5,6 C 25,7 km/h (4 Bft)
01.02.2018 01:00 3,1 C 90 % 993,1 hPa 0,0 l/m 19,0 km/h (3 Bft) SW 215 0 min 0 W/m 1,6 C -5,2 C 29,0 km/h (5 Bft)
01.02.2018 01:03 3,1 C 90 % 993,0 hPa 0,0 l/m 19,8 km/h (3 Bft) S-SW 210 0 min 0 W/m 1,6 C -5,5 C 27,4 km/h (5 Bft)
01.02.2018 01:06 3,2 C 90 % 993,0 hPa 0,0 l/m 20,8 km/h (4 Bft) SW 226 0 min 0 W/m 1,7 C -5,8 C 32,2 km/h (5 Bft)
01.02.2018 01:09 3,2 C 90 % 993,0 hPa 0,0 l/m 20,5 km/h (4 Bft) W-SW 238 0 min 0 W/m 1,7 C -5,7 C 27,4 km/h (5 Bft)
01.02.2018 01:12 3,2 C 90 % 993,1 hPa 0,0 l/m 18,5 km/h (3 Bft) SW 224 0 min 0 W/m 1,7 C -4,8 C 29,0 km/h (5 Bft)
01.02.2018 01:15 3,2 C 90 % 993,0 hPa 0,0 l/m 18,4 km/h (3 Bft) SW 215 0 min 0 W/m 1,7 C -4,8 C 27,4 km/h (5 Bft)
01.02.2018 01:18 3,2 C 90 % 993,0 hPa 0,0 l/m 17,1 km/h (3 Bft) W-SW 242 0 min 0 W/m 1,7 C -4,2 C 29,0 km/h (5 Bft)
01.02.2018 01:21 3,2 C 90 % 993,0 hPa 0,0 l/m 16,1 km/h (3 Bft) W-SW 244 0 min 0 W/m 1,7 C -3,7 C 24,1 km/h (4 Bft)
01.02.2018 01:24 3,1 C 90 % 993,0 hPa 0,0 l/m 16,6 km/h (3 Bft) W-SW 244 0 min 0 W/m 1,6 C -4,1 C 25,7 km/h (4 Bft)
01.02.2018 01:27 3,1 C 90 % 993,0 hPa 0,0 l/m 19,7 km/h (3 Bft) SW 215 0 min 0 W/m 1,6 C -5,5 C 33,8 km/h (5 Bft)
01.02.2018 01:30 3,0 C 90 % 993,0 hPa 0,0 l/m 17,1 km/h (3 Bft) SW 219 0 min 0 W/m 1,5 C -4,4 C 25,7 km/h (4 Bft)
01.02.2018 01:33 3,0 C 90 % 993,0 hPa 0,0 l/m 18,7 km/h (3 Bft) S-SW 210 0 min 0 W/m 1,5 C -5,2 C 25,7 km/h (4 Bft)
01.02.2018 01:36 2,9 C 90 % 992,9 hPa 0,0 l/m 15,8 km/h (3 Bft) S-SW 213 0 min 0 W/m 1,4 C -3,9 C 24,1 km/h (4 Bft)
01.02.2018 01:39 2,9 C 90 % 992,9 hPa 0,0 l/m 17,4 km/h (3 Bft) SW 226 0 min 0 W/m 1,4 C -4,7 C 29,0 km/h (5 Bft)
01.02.2018 01:42 2,9 C 90 % 992,9 hPa 0,0 l/m 16,9 km/h (3 Bft) W-SW 246 0 min 0 W/m 1,4 C -4,5 C 32,2 km/h (5 Bft)
01.02.2018 01:45 2,9 C 90 % 992,9 hPa 0,0 l/m 18,2 km/h (3 Bft) SW 215 0 min 0 W/m 1,4 C -5,1 C 27,4 km/h (5 Bft)
01.02.2018 01:48 2,8 C 90 % 992,9 hPa 0,0 l/m 16,5 km/h (3 Bft) S-SW 207 0 min 0 W/m 1,3 C -4,4 C 24,1 km/h (4 Bft)
01.02.2018 01:51 2,8 C 90 % 992,8 hPa 0,0 l/m 17,3 km/h (3 Bft) SW 217 0 min 0 W/m 1,3 C -4,8 C 29,0 km/h (5 Bft)
01.02.2018 01:54 2,8 C 90 % 992,8 hPa 0,0 l/m 17,9 km/h (3 Bft) SW 231 0 min 0 W/m 1,3 C -5,1 C 27,4 km/h (5 Bft)
01.02.2018 01:57 2,8 C 90 % 992,8 hPa 0,0 l/m 17,7 km/h (3 Bft) S-SW 204 0 min 0 W/m 1,3 C -5,0 C 29,0 km/h (5 Bft)
01.02.2018 02:00 2,8 C 90 % 992,8 hPa 0,0 l/m 22,1 km/h (4 Bft) W-SW 250 0 min 0 W/m 1,3 C -6,9 C 38,6 km/h (6 Bft)
01.02.2018 02:03 2,8 C 90 % 992,9 hPa 0,0 l/m 20,8 km/h (4 Bft) SW 227 0 min 0 W/m 1,3 C -6,3 C 30,6 km/h (5 Bft)
01.02.2018 02:06 2,8 C 90 % 992,9 hPa 0,0 l/m 18,0 km/h (3 Bft) S-SW 212 0 min 0 W/m 1,3 C -5,1 C 25,7 km/h (4 Bft)
01.02.2018 02:09 2,8 C 90 % 992,8 hPa 0,0 l/m 18,3 km/h (3 Bft) W-SW 251 0 min 0 W/m 1,3 C -5,3 C 35,4 km/h (5 Bft)
01.02.2018 02:12 2,8 C 91 % 992,9 hPa 0,0 l/m 19,0 km/h (3 Bft) SW 232 0 min 0 W/m 1,5 C -5,6 C 25,7 km/h (4 Bft)
01.02.2018 02:15 2,8 C 91 % 992,8 hPa 0,0 l/m 19,7 km/h (3 Bft) SW 215 0 min 0 W/m 1,5 C -5,9 C 29,0 km/h (5 Bft)
01.02.2018 02:18 2,9 C 91 % 992,9 hPa 0,0 l/m 20,4 km/h (4 Bft) SW 231 0 min 0 W/m 1,6 C -6,1 C 30,6 km/h (5 Bft)
01.02.2018 02:21 2,9 C 91 % 992,8 hPa 0,0 l/m 19,5 km/h (3 Bft) SW 234 0 min 0 W/m 1,6 C -5,7 C 30,6 km/h (5 Bft)
01.02.2018 02:24 2,9 C 91 % 992,8 hPa 0,0 l/m 19,0 km/h (3 Bft) S-SW 213 0 min 0 W/m 1,6 C -5,4 C 29,0 km/h (5 Bft)
01.02.2018 02:27 2,9 C 91 % 992,9 hPa 0,0 l/m 19,5 km/h (3 Bft) W-SW 243 0 min 0 W/m 1,6 C -5,7 C 30,6 km/h (5 Bft)
01.02.2018 02:30 2,9 C 91 % 992,8 hPa 0,0 l/m 18,7 km/h (3 Bft) SW 221 0 min 0 W/m 1,6 C -5,3 C 25,7 km/h (4 Bft)
01.02.2018 02:33 2,9 C 91 % 992,8 hPa 0,0 l/m 20,0 km/h (4 Bft) S-SW 195 0 min 0 W/m 1,6 C -5,9 C 27,4 km/h (5 Bft)
01.02.2018 02:36 2,9 C 91 % 992,9 hPa 0,0 l/m 20,4 km/h (4 Bft) SW 229 0 min 0 W/m 1,6 C -6,1 C 32,2 km/h (5 Bft)
01.02.2018 02:39 2,9 C 90 % 992,9 hPa 0,0 l/m 19,8 km/h (3 Bft) SW 231 0 min 0 W/m 1,4 C -5,8 C 29,0 km/h (5 Bft)
01.02.2018 02:42 2,9 C 90 % 992,8 hPa 0,0 l/m 22,0 km/h (4 Bft) SW 227 0 min 0 W/m 1,4 C -6,7 C 30,6 km/h (5 Bft)
01.02.2018 02:45 2,9 C 90 % 992,8 hPa 0,0 l/m 20,6 km/h (4 Bft) S 186 0 min 0 W/m 1,4 C -6,1 C 30,6 km/h (5 Bft)
01.02.2018 02:48 2,9 C 90 % 992,7 hPa 0,0 l/m 20,4 km/h (4 Bft) S-SW 199 0 min 0 W/m 1,4 C -6,1 C 29,0 km/h (5 Bft)
01.02.2018 02:51 2,9 C 90 % 992,7 hPa 0,0 l/m 18,7 km/h (3 Bft) W-SW 254 0 min 0 W/m 1,4 C -5,3 C 29,0 km/h (5 Bft)
01.02.2018 02:54 2,9 C 90 % 992,7 hPa 0,0 l/m 21,9 km/h (4 Bft) SW 217 0 min 0 W/m 1,4 C -6,7 C 37,0 km/h (5 Bft)
01.02.2018 02:57 2,9 C 90 % 992,8 hPa 0,0 l/m 21,4 km/h (4 Bft) SW 229 0 min 0 W/m 1,4 C -6,5 C 29,0 km/h (5 Bft)
01.02.2018 03:00 2,8 C 90 % 992,7 hPa 0,0 l/m 19,4 km/h (3 Bft) SW 223 0 min 0 W/m 1,3 C -5,8 C 32,2 km/h (5 Bft)
01.02.2018 03:03 2,8 C 90 % 992,8 hPa 0,0 l/m 21,9 km/h (4 Bft) SW 219 0 min 0 W/m 1,3 C -6,8 C 40,2 km/h (6 Bft)
01.02.2018 03:06 2,8 C 90 % 992,7 hPa 0,0 l/m 19,8 km/h (3 Bft) SW 234 0 min 0 W/m 1,3 C -5,9 C 29,0 km/h (5 Bft)
01.02.2018 03:09 2,8 C 90 % 992,7 hPa 0,0 l/m 16,7 km/h (3 Bft) S-SW 207 0 min 0 W/m 1,3 C -4,5 C 24,1 km/h (4 Bft)
01.02.2018 03:12 2,8 C 90 % 992,7 hPa 0,0 l/m 20,7 km/h (4 Bft) SW 234 0 min 0 W/m 1,3 C -6,3 C 32,2 km/h (5 Bft)
01.02.2018 03:15 2,8 C 91 % 992,7 hPa 0,0 l/m 21,0 km/h (4 Bft) SW 223 0 min 0 W/m 1,5 C -6,4 C 33,8 km/h (5 Bft)
01.02.2018 03:18 2,8 C 91 % 992,8 hPa 0,0 l/m 20,2 km/h (4 Bft) SW 225 0 min 0 W/m 1,5 C -6,1 C 30,6 km/h (5 Bft)
01.02.2018 03:21 2,8 C 91 % 992,7 hPa 0,0 l/m 21,7 km/h (4 Bft) SW 219 0 min 0 W/m 1,5 C -6,7 C 32,2 km/h (5 Bft)
01.02.2018 03:24 2,8 C 90 % 992,7 hPa 0,0 l/m 23,2 km/h (4 Bft) S-SW 213 0 min 0 W/m 1,3 C -7,3 C 32,2 km/h (5 Bft)
01.02.2018 03:27 2,8 C 90 % 992,6 hPa 0,0 l/m 23,7 km/h (4 Bft) SW 221 0 min 0 W/m 1,3 C -7,5 C 32,2 km/h (5 Bft)
01.02.2018 03:30 2,8 C 90 % 992,7 hPa 0,0 l/m 21,3 km/h (4 Bft) SW 214 0 min 0 W/m 1,3 C -6,6 C 29,0 km/h (5 Bft)
01.02.2018 03:33 2,9 C 90 % 992,5 hPa 0,0 l/m 22,8 km/h (4 Bft) SW 235 0 min 0 W/m 1,4 C -7,0 C 30,6 km/h (5 Bft)
01.02.2018 03:36 2,9 C 90 % 992,5 hPa 0,0 l/m 22,5 km/h (4 Bft) SW 225 0 min 0 W/m 1,4 C -6,9 C 32,2 km/h (5 Bft)
01.02.2018 03:39 2,9 C 90 % 992,6 hPa 0,0 l/m 21,8 km/h (4 Bft) W-SW 242 0 min 0 W/m 1,4 C -6,6 C 30,6 km/h (5 Bft)
01.02.2018 03:42 2,8 C 90 % 992,6 hPa 0,0 l/m 19,7 km/h (3 Bft) SW 225 0 min 0 W/m 1,3 C -5,9 C 27,4 km/h (5 Bft)
01.02.2018 03:45 2,8 C 90 % 992,5 hPa 0,0 l/m 21,4 km/h (4 Bft) W-SW 244 0 min 0 W/m 1,3 C -6,6 C 29,0 km/h (5 Bft)
01.02.2018 03:48 2,8 C 90 % 992,5 hPa 0,0 l/m 21,8 km/h (4 Bft) W-SW 252 0 min 0 W/m 1,3 C -6,8 C 33,8 km/h (5 Bft)
01.02.2018 03:51 2,8 C 90 % 992,5 hPa 0,0 l/m 19,2 km/h (3 Bft) SW 227 0 min 0 W/m 1,3 C -5,7 C 27,4 km/h (5 Bft)
01.02.2018 03:54 2,8 C 90 % 992,5 hPa 0,0 l/m 22,4 km/h (4 Bft) S 182 0 min 0 W/m 1,3 C -7,0 C 32,2 km/h (5 Bft)
01.02.2018 03:57 2,8 C 90 % 992,4 hPa 0,0 l/m 20,8 km/h (4 Bft) SW 223 0 min 0 W/m 1,3 C -6,3 C 30,6 km/h (5 Bft)
01.02.2018 04:00 2,8 C 90 % 992,4 hPa 0,0 l/m 18,7 km/h (3 Bft) SW 216 0 min 0 W/m 1,3 C -5,4 C 29,0 km/h (5 Bft)
01.02.2018 04:03 2,8 C 90 % 992,3 hPa 0,0 l/m 18,4 km/h (3 Bft) SW 223 0 min 0 W/m 1,3 C -5,3 C 29,0 km/h (5 Bft)
01.02.2018 04:06 2,8 C 90 % 992,4 hPa 0,0 l/m 21,8 km/h (4 Bft) W-SW 240 0 min 0 W/m 1,3 C -6,8 C 32,2 km/h (5 Bft)
01.02.2018 04:09 2,8 C 90 % 992,4 hPa 0,0 l/m 17,8 km/h (3 Bft) S-SW 209 0 min 0 W/m 1,3 C -5,0 C 27,4 km/h (5 Bft)
01.02.2018 04:12 2,8 C 90 % 992,4 hPa 0,0 l/m 21,2 km/h (4 Bft) S-SW 202 0 min 0 W/m 1,3 C -6,5 C 33,8 km/h (5 Bft)
01.02.2018 04:15 2,8 C 90 % 992,5 hPa 0,0 l/m 19,8 km/h (3 Bft) SW 222 0 min 0 W/m 1,3 C -5,9 C 29,0 km/h (5 Bft)
01.02.2018 04:18 2,7 C 90 % 992,4 hPa 0,0 l/m 16,7 km/h (3 Bft) SW 225 0 min 0 W/m 1,2 C -4,6 C 22,5 km/h (4 Bft)
01.02.2018 04:21 2,7 C 90 % 992,5 hPa 0,0 l/m 16,5 km/h (3 Bft) SW 225 0 min 0 W/m 1,2 C -4,5 C 29,0 km/h (5 Bft)
01.02.2018 04:24 2,7 C 90 % 992,5 hPa 0,0 l/m 18,9 km/h (3 Bft) SW 225 0 min 0 W/m 1,2 C -5,7 C 33,8 km/h (5 Bft)
01.02.2018 04:27 2,6 C 90 % 992,5 hPa 0,0 l/m 19,9 km/h (4 Bft) SW 225 0 min 0 W/m 1,1 C -6,2 C 33,8 km/h (5 Bft)
01.02.2018 04:30 2,6 C 90 % 992,5 hPa 0,0 l/m 17,8 km/h (3 Bft) SW 219 0 min 0 W/m 1,1 C -5,3 C 25,7 km/h (4 Bft)
01.02.2018 04:33 2,6 C 90 % 992,5 hPa 0,0 l/m 16,0 km/h (3 Bft) SW 227 0 min 0 W/m 1,1 C -4,4 C 27,4 km/h (5 Bft)
01.02.2018 04:36 2,6 C 91 % 992,5 hPa 0,0 l/m 17,1 km/h (3 Bft) S-SW 195 0 min 0 W/m 1,3 C -4,9 C 27,4 km/h (5 Bft)
01.02.2018 04:39 2,5 C 91 % 992,5 hPa 0,0 l/m 15,6 km/h (3 Bft) SW 226 0 min 0 W/m 1,2 C -4,3 C 22,5 km/h (4 Bft)
01.02.2018 04:42 2,5 C 91 % 992,5 hPa 0,0 l/m 19,7 km/h (3 Bft) SW 221 0 min 0 W/m 1,2 C -6,3 C 30,6 km/h (5 Bft)
01.02.2018 04:45 2,5 C 91 % 992,5 hPa 0,0 l/m 17,9 km/h (3 Bft) SW 217 0 min 0 W/m 1,2 C -5,4 C 29,0 km/h (5 Bft)
01.02.2018 04:48 2,4 C 91 % 992,4 hPa 0,0 l/m 17,5 km/h (3 Bft) SW 222 0 min 0 W/m 1,1 C -5,4 C 29,0 km/h (5 Bft)
01.02.2018 04:51 2,4 C 91 % 992,5 hPa 0,0 l/m 20,5 km/h (4 Bft) SW 221 0 min 0 W/m 1,1 C -6,7 C 32,2 km/h (5 Bft)
01.02.2018 04:54 2,3 C 91 % 992,6 hPa 0,0 l/m 20,7 km/h (4 Bft) SW 214 0 min 0 W/m 1,0 C -7,0 C 30,6 km/h (5 Bft)
01.02.2018 04:57 2,3 C 91 % 992,6 hPa 0,0 l/m 18,6 km/h (3 Bft) SW 234 0 min 0 W/m 1,0 C -6,0 C 30,6 km/h (5 Bft)
01.02.2018 05:00 2,3 C 91 % 992,5 hPa 0,0 l/m 18,6 km/h (3 Bft) SW 219 0 min 0 W/m 1,0 C -6,0 C 27,4 km/h (5 Bft)
01.02.2018 05:03 2,3 C 91 % 992,5 hPa 0,0 l/m 20,8 km/h (4 Bft) SW 227 0 min 0 W/m 1,0 C -7,0 C 32,2 km/h (5 Bft)
01.02.2018 05:06 2,4 C 91 % 992,5 hPa 0,0 l/m 21,2 km/h (4 Bft) S-SW 206 0 min 0 W/m 1,1 C -7,0 C 29,0 km/h (5 Bft)
01.02.2018 05:09 2,4 C 91 % 992,4 hPa 0,0 l/m 18,7 km/h (3 Bft) SW 221 0 min 0 W/m 1,1 C -6,0 C 30,6 km/h (5 Bft)
01.02.2018 05:12 2,4 C 91 % 992,5 hPa 0,0 l/m 18,2 km/h (3 Bft) S-SW 204 0 min 0 W/m 1,1 C -5,7 C 25,7 km/h (4 Bft)
01.02.2018 05:15 2,4 C 91 % 992,5 hPa 0,0 l/m 20,7 km/h (4 Bft) SW 231 0 min 0 W/m 1,1 C -6,8 C 27,4 km/h (5 Bft)
01.02.2018 05:18 2,5 C 91 % 992,4 hPa 0,0 l/m 18,3 km/h (3 Bft) S-SW 199 0 min 0 W/m 1,2 C -5,6 C 30,6 km/h (5 Bft)
01.02.2018 05:21 2,5 C 91 % 992,4 hPa 0,0 l/m 18,7 km/h (3 Bft) SW 220 0 min 0 W/m 1,2 C -5,8 C 25,7 km/h (4 Bft)
01.02.2018 05:24 2,5 C 91 % 992,4 hPa 0,0 l/m 20,1 km/h (4 Bft) S-SW 202 0 min 0 W/m 1,2 C -6,4 C 32,2 km/h (5 Bft)
01.02.2018 05:27 2,6 C 91 % 992,4 hPa 0,0 l/m 16,9 km/h (3 Bft) SW 222 0 min 0 W/m 1,3 C -4,8 C 22,5 km/h (4 Bft)
01.02.2018 05:30 2,5 C 91 % 992,5 hPa 0,0 l/m 18,2 km/h (3 Bft) S-SW 210 0 min 0 W/m 1,2 C -5,6 C 32,2 km/h (5 Bft)
01.02.2018 05:33 2,5 C 91 % 992,5 hPa 0,0 l/m 19,1 km/h (3 Bft) S-SW 210 0 min 0 W/m 1,2 C -6,0 C 35,4 km/h (5 Bft)
01.02.2018 05:36 2,5 C 91 % 992,5 hPa 0,0 l/m 19,0 km/h (3 Bft) W-SW 244 0 min 0 W/m 1,2 C -6,0 C 32,2 km/h (5 Bft)
01.02.2018 05:39 2,5 C 91 % 992,4 hPa 0,0 l/m 19,5 km/h (3 Bft) SW 232 0 min 0 W/m 1,2 C -6,2 C 29,0 km/h (5 Bft)
01.02.2018 05:42 2,5 C 91 % 992,5 hPa 0,0 l/m 19,0 km/h (3 Bft) SW 217 0 min 0 W/m 1,2 C -6,0 C 27,4 km/h (5 Bft)
01.02.2018 05:45 2,5 C 91 % 992,5 hPa 0,0 l/m 17,9 km/h (3 Bft) S-SW 198 0 min 0 W/m 1,2 C -5,4 C 27,4 km/h (5 Bft)
01.02.2018 05:48 2,6 C 91 % 992,6 hPa 0,0 l/m 18,7 km/h (3 Bft) SW 215 0 min 0 W/m 1,3 C -5,7 C 32,2 km/h (5 Bft)
01.02.2018 05:51 2,6 C 91 % 992,5 hPa 0,0 l/m 21,6 km/h (4 Bft) SW 226 0 min 0 W/m 1,3 C -6,9 C 37,0 km/h (5 Bft)
01.02.2018 05:54 2,6 C 91 % 992,5 hPa 0,0 l/m 21,0 km/h (4 Bft) SW 233 0 min 0 W/m 1,3 C -6,7 C 30,6 km/h (5 Bft)
01.02.2018 05:57 2,6 C 91 % 992,5 hPa 0,0 l/m 20,4 km/h (4 Bft) S-SW 204 0 min 0 W/m 1,3 C -6,4 C 30,6 km/h (5 Bft)
01.02.2018 06:00 2,6 C 91 % 992,4 hPa 0,0 l/m 20,1 km/h (4 Bft) S-SW 211 0 min 0 W/m 1,3 C -6,3 C 27,4 km/h (5 Bft)
01.02.2018 06:03 2,6 C 91 % 992,5 hPa 0,0 l/m 21,5 km/h (4 Bft) S-SW 198 0 min 0 W/m 1,3 C -6,9 C 33,8 km/h (5 Bft)
01.02.2018 06:06 2,6 C 91 % 992,5 hPa 0,0 l/m 20,7 km/h (4 Bft) SW 228 0 min 0 W/m 1,3 C -6,6 C 29,0 km/h (5 Bft)
01.02.2018 06:09 2,7 C 92 % 992,5 hPa 0,0 l/m 21,8 km/h (4 Bft) SW 234 0 min 0 W/m 1,5 C -6,9 C 32,2 km/h (5 Bft)
01.02.2018 06:12 2,7 C 92 % 992,5 hPa 0,0 l/m 22,8 km/h (4 Bft) W-SW 244 0 min 0 W/m 1,5 C -7,3 C 35,4 km/h (5 Bft)
01.02.2018 06:15 2,7 C 92 % 992,4 hPa 0,0 l/m 24,4 km/h (4 Bft) SW 223 0 min 0 W/m 1,5 C -7,9 C 35,4 km/h (5 Bft)
01.02.2018 06:18 2,7 C 92 % 992,5 hPa 0,0 l/m 21,0 km/h (4 Bft) SW 232 0 min 0 W/m 1,5 C -6,6 C 32,2 km/h (5 Bft)
01.02.2018 06:21 2,7 C 92 % 992,5 hPa 0,0 l/m 18,0 km/h (3 Bft) W 263 0 min 0 W/m 1,5 C -5,2 C 25,7 km/h (4 Bft)
01.02.2018 06:24 2,7 C 92 % 992,4 hPa 0,0 l/m 18,6 km/h (3 Bft) SW 228 0 min 0 W/m 1,5 C -5,5 C 27,4 km/h (5 Bft)
01.02.2018 06:27 2,7 C 92 % 992,5 hPa 0,0 l/m 18,0 km/h (3 Bft) S-SW 208 0 min 0 W/m 1,5 C -5,2 C 30,6 km/h (5 Bft)
01.02.2018 06:30 2,6 C 92 % 992,5 hPa 0,0 l/m 18,9 km/h (3 Bft) SW 234 0 min 0 W/m 1,4 C -5,8 C 30,6 km/h (5 Bft)
01.02.2018 06:33 2,6 C 92 % 992,5 hPa 0,0 l/m 18,5 km/h (3 Bft) SW 221 0 min 0 W/m 1,4 C -5,6 C 27,4 km/h (5 Bft)
01.02.2018 06:36 2,6 C 92 % 992,5 hPa 0,0 l/m 19,6 km/h (3 Bft) S-SW 205 0 min 0 W/m 1,4 C -6,1 C 27,4 km/h (5 Bft)
01.02.2018 06:39 2,6 C 92 % 992,5 hPa 0,0 l/m 17,7 km/h (3 Bft) S-SW 207 0 min 0 W/m 1,4 C -5,2 C 25,7 km/h (4 Bft)
01.02.2018 06:42 2,6 C 92 % 992,5 hPa 0,0 l/m 20,3 km/h (4 Bft) SW 221 0 min 0 W/m 1,4 C -6,4 C 32,2 km/h (5 Bft)
01.02.2018 06:45 2,6 C 92 % 992,6 hPa 0,0 l/m 19,4 km/h (3 Bft) S-SW 210 0 min 0 W/m 1,4 C -6,0 C 32,2 km/h (5 Bft)
01.02.2018 06:48 2,6 C 92 % 992,6 hPa 0,0 l/m 21,5 km/h (4 Bft) W-SW 238 0 min 0 W/m 1,4 C -6,9 C 30,6 km/h (5 Bft)
01.02.2018 06:51 2,5 C 92 % 992,6 hPa 0,0 l/m 17,9 km/h (3 Bft) S-SW 205 0 min 0 W/m 1,3 C -5,4 C 29,0 km/h (5 Bft)
01.02.2018 06:54 2,4 C 92 % 992,6 hPa 0,0 l/m 18,2 km/h (3 Bft) SW 231 0 min 0 W/m 1,2 C -5,7 C 24,1 km/h (4 Bft)
01.02.2018 06:57 2,4 C 92 % 992,6 hPa 0,0 l/m 17,7 km/h (3 Bft) S-SW 204 0 min 0 W/m 1,2 C -5,5 C 29,0 km/h (5 Bft)
01.02.2018 07:00 2,4 C 93 % 992,6 hPa 0,0 l/m 18,4 km/h (3 Bft) W-SW 240 0 min 0 W/m 1,4 C -5,8 C 30,6 km/h (5 Bft)
01.02.2018 07:03 2,4 C 93 % 992,7 hPa 0,0 l/m 18,4 km/h (3 Bft) SW 232 0 min 0 W/m 1,4 C -5,8 C 29,0 km/h (5 Bft)
01.02.2018 07:06 2,4 C 93 % 992,6 hPa 0,0 l/m 18,4 km/h (3 Bft) W 260 0 min 0 W/m 1,4 C -5,8 C 32,2 km/h (5 Bft)
01.02.2018 07:09 2,3 C 93 % 992,5 hPa 0,0 l/m 20,4 km/h (4 Bft) SW 224 0 min 0 W/m 1,3 C -6,8 C 32,2 km/h (5 Bft)
01.02.2018 07:12 2,3 C 93 % 992,6 hPa 0,0 l/m 19,9 km/h (4 Bft) S-SW 205 0 min 0 W/m 1,3 C -6,6 C 29,0 km/h (5 Bft)
01.02.2018 07:15 2,3 C 93 % 992,6 hPa 0,0 l/m 19,8 km/h (3 Bft) SW 231 0 min 0 W/m 1,3 C -6,6 C 35,4 km/h (5 Bft)
01.02.2018 07:18 2,3 C 93 % 992,6 hPa 0,0 l/m 16,1 km/h (3 Bft) S-SW 205 0 min 0 W/m 1,3 C -4,8 C 22,5 km/h (4 Bft)
01.02.2018 07:21 2,3 C 93 % 992,5 hPa 0,0 l/m 17,0 km/h (3 Bft) S-SW 210 0 min 0 W/m 1,3 C -5,3 C 27,4 km/h (5 Bft)
01.02.2018 07:24 2,4 C 93 % 992,6 hPa 0,0 l/m 19,3 km/h (3 Bft) SW 228 0 min 0 W/m 1,4 C -6,2 C 32,2 km/h (5 Bft)
01.02.2018 07:27 2,4 C 94 % 992,6 hPa 0,0 l/m 18,2 km/h (3 Bft) S-SW 213 0 min 0 W/m 1,5 C -5,7 C 27,4 km/h (5 Bft)
01.02.2018 07:30 2,4 C 94 % 992,6 hPa 0,0 l/m 17,6 km/h (3 Bft) S 178 0 min 0 W/m 1,5 C -5,4 C 29,0 km/h (5 Bft)
01.02.2018 07:33 2,4 C 94 % 992,7 hPa 0,0 l/m 17,0 km/h (3 Bft) S-SW 206 0 min 0 W/m 1,5 C -5,1 C 27,4 km/h (5 Bft)
01.02.2018 07:36 2,5 C 94 % 992,6 hPa 0,2 l/m 17,3 km/h (3 Bft) S-SW 211 0 min 0 W/m 1,6 C -5,2 C 27,4 km/h (5 Bft)
01.02.2018 07:39 2,5 C 94 % 992,6 hPa 0,0 l/m 16,3 km/h (3 Bft) S-SW 209 0 min 0 W/m 1,6 C -4,7 C 24,1 km/h (4 Bft)
01.02.2018 07:42 2,5 C 94 % 992,5 hPa 0,0 l/m 18,6 km/h (3 Bft) S-SW 207 0 min 0 W/m 1,6 C -5,8 C 27,4 km/h (5 Bft)
01.02.2018 07:45 2,5 C 94 % 992,5 hPa 0,0 l/m 17,5 km/h (3 Bft) S-SW 205 0 min 0 W/m 1,6 C -5,3 C 25,7 km/h (4 Bft)
01.02.2018 07:48 2,5 C 94 % 992,7 hPa 0,0 l/m 18,3 km/h (3 Bft) SW 221 0 min 0 W/m 1,6 C -5,6 C 25,7 km/h (4 Bft)
01.02.2018 07:51 2,5 C 94 % 992,7 hPa 0,0 l/m 21,2 km/h (4 Bft) S-SW 203 0 min 0 W/m 1,6 C -6,9 C 29,0 km/h (5 Bft)
01.02.2018 07:54 2,5 C 94 % 992,8 hPa 0,0 l/m 17,5 km/h (3 Bft) W-SW 248 0 min 0 W/m 1,6 C -5,3 C 24,1 km/h (4 Bft)
01.02.2018 07:57 2,5 C 94 % 992,8 hPa 0,0 l/m 19,0 km/h (3 Bft) S-SW 209 0 min 0 W/m 1,6 C -6,0 C 27,4 km/h (5 Bft)
01.02.2018 08:00 2,4 C 94 % 992,8 hPa 0,0 l/m 17,4 km/h (3 Bft) W-SW 242 0 min 0 W/m 1,5 C -5,3 C 25,7 km/h (4 Bft)
01.02.2018 08:03 2,4 C 94 % 992,8 hPa 0,0 l/m 18,8 km/h (3 Bft) SW 221 0 min 0 W/m 1,5 C -6,0 C 30,6 km/h (5 Bft)
01.02.2018 08:06 2,4 C 94 % 992,8 hPa 0,0 l/m 18,8 km/h (3 Bft) S-SW 209 0 min 0 W/m 1,5 C -6,0 C 29,0 km/h (5 Bft)
01.02.2018 08:09 2,4 C 94 % 992,9 hPa 0,0 l/m 20,4 km/h (4 Bft) SW 225 0 min 0 W/m 1,5 C -6,7 C 30,6 km/h (5 Bft)
01.02.2018 08:12 2,4 C 94 % 992,9 hPa 0,0 l/m 18,2 km/h (3 Bft) W-SW 243 0 min 5 W/m 1,5 C -5,7 C 27,4 km/h (5 Bft)
01.02.2018 08:15 2,4 C 94 % 992,8 hPa 0,0 l/m 19,0 km/h (3 Bft) SW 221 0 min 5 W/m 1,5 C -6,1 C 29,0 km/h (5 Bft)
01.02.2018 08:18 2,5 C 94 % 992,9 hPa 0,0 l/m 18,2 km/h (3 Bft) SW 233 0 min 11 W/m 1,6 C -5,6 C 29,0 km/h (5 Bft)
01.02.2018 08:21 2,5 C 94 % 992,9 hPa 0,0 l/m 18,9 km/h (3 Bft) SW 231 0 min 14 W/m 1,6 C -5,9 C 25,7 km/h (4 Bft)
01.02.2018 08:24 2,6 C 94 % 992,9 hPa 0,0 l/m 18,8 km/h (3 Bft) S-SW 207 0 min 16 W/m 1,7 C -5,7 C 27,4 km/h (5 Bft)
01.02.2018 08:27 2,6 C 94 % 992,8 hPa 0,0 l/m 21,6 km/h (4 Bft) SW 229 3 min 12 W/m 1,7 C -6,9 C 32,2 km/h (5 Bft)
01.02.2018 08:30 2,6 C 94 % 992,8 hPa 0,0 l/m 18,7 km/h (3 Bft) S-SW 207 3 min 16 W/m 1,7 C -5,7 C 25,7 km/h (4 Bft)
01.02.2018 08:33 2,6 C 94 % 992,9 hPa 0,0 l/m 19,0 km/h (3 Bft) S-SW 198 0 min 11 W/m 1,7 C -5,8 C 27,4 km/h (5 Bft)
01.02.2018 08:36 2,6 C 94 % 992,9 hPa 0,0 l/m 20,7 km/h (4 Bft) SW 221 0 min 11 W/m 1,7 C -6,6 C 32,2 km/h (5 Bft)
01.02.2018 08:39 2,6 C 94 % 992,9 hPa 0,0 l/m 22,1 km/h (4 Bft) SW 222 0 min 11 W/m 1,7 C -7,1 C 33,8 km/h (5 Bft)
01.02.2018 08:42 2,6 C 94 % 992,8 hPa 0,0 l/m 17,0 km/h (3 Bft) S-SW 204 0 min 16 W/m 1,7 C -4,9 C 27,4 km/h (5 Bft)
01.02.2018 08:45 2,6 C 94 % 992,8 hPa 0,0 l/m 22,1 km/h (4 Bft) SW 236 0 min 26 W/m 1,7 C -7,1 C 33,8 km/h (5 Bft)
01.02.2018 08:48 2,6 C 94 % 992,8 hPa 0,0 l/m 21,5 km/h (4 Bft) SW 220 0 min 26 W/m 1,7 C -6,9 C 30,6 km/h (5 Bft)
01.02.2018 08:51 2,6 C 94 % 992,8 hPa 0,0 l/m 20,6 km/h (4 Bft) SW 236 3 min 44 W/m 1,7 C -6,5 C 30,6 km/h (5 Bft)
01.02.2018 08:54 2,6 C 94 % 992,8 hPa 0,0 l/m 23,8 km/h (4 Bft) S-SW 207 3 min 56 W/m 1,7 C -7,8 C 37,0 km/h (5 Bft)
01.02.2018 08:57 2,6 C 94 % 992,8 hPa 0,0 l/m 23,5 km/h (4 Bft) SW 220 0 min 37 W/m 1,7 C -7,7 C 43,5 km/h (6 Bft)
01.02.2018 09:00 2,7 C 94 % 992,9 hPa 0,0 l/m 19,0 km/h (3 Bft) SW 231 0 min 33 W/m 1,8 C -5,7 C 29,0 km/h (5 Bft)
01.02.2018 09:03 2,6 C 94 % 992,9 hPa 0,0 l/m 20,4 km/h (4 Bft) SW 236 0 min 37 W/m 1,7 C -6,4 C 29,0 km/h (5 Bft)
01.02.2018 09:06 2,7 C 94 % 992,9 hPa 0,0 l/m 20,1 km/h (4 Bft) S 187 0 min 35 W/m 1,8 C -6,2 C 30,6 km/h (5 Bft)
01.02.2018 09:09 2,6 C 94 % 992,9 hPa 0,0 l/m 21,5 km/h (4 Bft) W-SW 240 0 min 33 W/m 1,7 C -6,9 C 32,2 km/h (5 Bft)
01.02.2018 09:12 2,6 C 94 % 993,0 hPa 0,0 l/m 20,0 km/h (4 Bft) S-SW 211 0 min 26 W/m 1,7 C -6,3 C 38,6 km/h (6 Bft)
01.02.2018 09:15 2,6 C 94 % 993,0 hPa 0,0 l/m 20,1 km/h (4 Bft) S-SW 198 0 min 19 W/m 1,7 C -6,3 C 32,2 km/h (5 Bft)
01.02.2018 09:18 2,6 C 94 % 993,0 hPa 0,0 l/m 19,3 km/h (3 Bft) W-SW 247 0 min 23 W/m 1,7 C -6,0 C 25,7 km/h (4 Bft)
01.02.2018 09:21 2,6 C 94 % 993,0 hPa 0,0 l/m 21,6 km/h (4 Bft) SW 219 0 min 30 W/m 1,7 C -6,9 C 35,4 km/h (5 Bft)
01.02.2018 09:24 2,6 C 94 % 993,0 hPa 0,0 l/m 19,6 km/h (3 Bft) S-SW 203 0 min 30 W/m 1,7 C -6,1 C 27,4 km/h (5 Bft)
01.02.2018 09:27 2,6 C 94 % 993,0 hPa 0,0 l/m 20,9 km/h (4 Bft) S-SW 196 0 min 53 W/m 1,7 C -6,7 C 29,0 km/h (5 Bft)
01.02.2018 09:30 2,6 C 94 % 993,1 hPa 0,0 l/m 20,2 km/h (4 Bft) S 191 0 min 42 W/m 1,7 C -6,4 C 29,0 km/h (5 Bft)
01.02.2018 09:33 2,6 C 94 % 993,1 hPa 0,0 l/m 18,6 km/h (3 Bft) S-SW 202 0 min 49 W/m 1,7 C -5,7 C 35,4 km/h (5 Bft)
01.02.2018 09:36 2,6 C 94 % 993,2 hPa 0,0 l/m 21,2 km/h (4 Bft) SW 232 0 min 65 W/m 1,7 C -6,8 C 29,0 km/h (5 Bft)
01.02.2018 09:39 2,7 C 94 % 993,2 hPa 0,0 l/m 19,9 km/h (4 Bft) W-SW 240 0 min 47 W/m 1,8 C -6,1 C 33,8 km/h (5 Bft)
01.02.2018 09:42 2,7 C 94 % 993,2 hPa 0,0 l/m 19,9 km/h (4 Bft) S-SW 213 0 min 47 W/m 1,8 C -6,1 C 29,0 km/h (5 Bft)
01.02.2018 09:45 2,7 C 94 % 993,2 hPa 0,0 l/m 23,0 km/h (4 Bft) S 188 0 min 46 W/m 1,8 C -7,3 C 32,2 km/h (5 Bft)
01.02.2018 09:48 2,7 C 94 % 993,2 hPa 0,0 l/m 16,5 km/h (3 Bft) S-SW 195 0 min 39 W/m 1,8 C -4,5 C 25,7 km/h (4 Bft)
01.02.2018 09:51 2,7 C 94 % 993,1 hPa 0,0 l/m 19,7 km/h (3 Bft) SW 225 0 min 53 W/m 1,8 C -6,0 C 30,6 km/h (5 Bft)
01.02.2018 09:54 2,7 C 94 % 993,2 hPa 0,0 l/m 17,9 km/h (3 Bft) SW 227 0 min 54 W/m 1,8 C -5,2 C 27,4 km/h (5 Bft)
01.02.2018 09:57 2,8 C 94 % 993,3 hPa 0,0 l/m 19,2 km/h (3 Bft) S-SW 207 0 min 72 W/m 1,9 C -5,7 C 25,7 km/h (4 Bft)
01.02.2018 10:00 2,8 C 94 % 993,3 hPa 0,0 l/m 19,2 km/h (3 Bft) S-SW 198 0 min 63 W/m 1,9 C -5,7 C 29,0 km/h (5 Bft)
01.02.2018 10:03 2,9 C 94 % 993,3 hPa 0,0 l/m 21,5 km/h (4 Bft) SW 222 0 min 53 W/m 2,0 C -6,5 C 32,2 km/h (5 Bft)
01.02.2018 10:06 2,9 C 94 % 993,3 hPa 0,0 l/m 22,0 km/h (4 Bft) S 185 0 min 67 W/m 2,0 C -6,7 C 32,2 km/h (5 Bft)
01.02.2018 10:09 3,0 C 94 % 993,2 hPa 0,0 l/m 18,7 km/h (3 Bft) S-SW 209 0 min 90 W/m 2,1 C -5,2 C 37,0 km/h (5 Bft)
01.02.2018 10:12 3,1 C 94 % 993,2 hPa 0,0 l/m 20,5 km/h (4 Bft) W 263 0 min 81 W/m 2,2 C -5,8 C 29,0 km/h (5 Bft)
01.02.2018 10:15 3,1 C 94 % 993,2 hPa 0,0 l/m 20,0 km/h (4 Bft) S 180 0 min 116 W/m 2,2 C -5,6 C 37,0 km/h (5 Bft)
01.02.2018 10:18 3,2 C 94 % 993,2 hPa 0,0 l/m 21,7 km/h (4 Bft) S-SW 200 0 min 118 W/m 2,3 C -6,2 C 32,2 km/h (5 Bft)
01.02.2018 10:21 3,2 C 94 % 993,1 hPa 0,0 l/m 21,6 km/h (4 Bft) SW 222 0 min 84 W/m 2,3 C -6,1 C 30,6 km/h (5 Bft)
01.02.2018 10:24 3,2 C 93 % 993,2 hPa 0,0 l/m 24,5 km/h (4 Bft) SW 225 0 min 56 W/m 2,2 C -7,2 C 40,2 km/h (6 Bft)
01.02.2018 10:27 3,2 C 93 % 993,3 hPa 0,2 l/m 22,0 km/h (4 Bft) SW 228 0 min 97 W/m 2,2 C -6,3 C 30,6 km/h (5 Bft)
01.02.2018 10:30 3,2 C 93 % 993,2 hPa 0,0 l/m 21,6 km/h (4 Bft) S-SW 198 0 min 88 W/m 2,2 C -6,1 C 32,2 km/h (5 Bft)
01.02.2018 10:33 3,2 C 93 % 993,3 hPa 0,0 l/m 20,4 km/h (4 Bft) S 186 0 min 65 W/m 2,2 C -5,7 C 32,2 km/h (5 Bft)
01.02.2018 10:36 3,2 C 93 % 993,2 hPa 0,0 l/m 18,7 km/h (3 Bft) W-SW 238 0 min 109 W/m 2,2 C -4,9 C 29,0 km/h (5 Bft)
01.02.2018 10:39 3,2 C 94 % 993,2 hPa 0,0 l/m 20,2 km/h (4 Bft) S-SW 205 0 min 84 W/m 2,3 C -5,6 C 33,8 km/h (5 Bft)
01.02.2018 10:42 3,2 C 94 % 993,2 hPa 0,0 l/m 22,1 km/h (4 Bft) SW 235 0 min 35 W/m 2,3 C -6,3 C 30,6 km/h (5 Bft)
01.02.2018 10:45 3,2 C 94 % 993,3 hPa 0,0 l/m 22,1 km/h (4 Bft) S-SW 211 0 min 44 W/m 2,3 C -6,3 C 30,6 km/h (5 Bft)
01.02.2018 10:48 3,2 C 94 % 993,2 hPa 0,2 l/m 21,8 km/h (4 Bft) S-SW 205 0 min 39 W/m 2,3 C -6,2 C 33,8 km/h (5 Bft)
01.02.2018 10:51 3,2 C 94 % 993,2 hPa 0,0 l/m 24,1 km/h (4 Bft) S-SW 210 0 min 49 W/m 2,3 C -7,1 C 40,2 km/h (6 Bft)
01.02.2018 10:54 3,2 C 94 % 993,2 hPa 0,0 l/m 23,4 km/h (4 Bft) S-SW 205 0 min 37 W/m 2,3 C -6,8 C 35,4 km/h (5 Bft)
01.02.2018 10:57 3,2 C 94 % 993,2 hPa 0,0 l/m 21,4 km/h (4 Bft) SW 231 0 min 35 W/m 2,3 C -6,1 C 30,6 km/h (5 Bft)
01.02.2018 11:00 3,2 C 94 % 993,2 hPa 0,0 l/m 17,9 km/h (3 Bft) S-SW 205 0 min 51 W/m 2,3 C -4,6 C 27,4 km/h (5 Bft)
01.02.2018 11:03 3,2 C 94 % 993,2 hPa 0,0 l/m 19,3 km/h (3 Bft) SW 236 0 min 54 W/m 2,3 C -5,2 C 33,8 km/h (5 Bft)
01.02.2018 11:06 3,2 C 94 % 993,2 hPa 0,0 l/m 21,4 km/h (4 Bft) SW 227 0 min 72 W/m 2,3 C -6,1 C 32,2 km/h (5 Bft)
01.02.2018 11:09 3,2 C 94 % 993,3 hPa 0,0 l/m 21,4 km/h (4 Bft) W-SW 238 0 min 76 W/m 2,3 C -6,1 C 32,2 km/h (5 Bft)
01.02.2018 11:12 3,2 C 94 % 993,2 hPa 0,0 l/m 27,2 km/h (5 Bft) SW 221 0 min 91 W/m 2,3 C -8,1 C 35,4 km/h (5 Bft)
01.02.2018 11:15 3,2 C 94 % 993,1 hPa 0,0 l/m 24,5 km/h (4 Bft) SW 229 0 min 67 W/m 2,3 C -7,2 C 35,4 km/h (5 Bft)
01.02.2018 11:18 3,2 C 94 % 993,2 hPa 0,0 l/m 24,5 km/h (4 Bft) SW 233 0 min 137 W/m 2,3 C -7,2 C 41,8 km/h (6 Bft)
01.02.2018 11:21 3,3 C 94 % 993,2 hPa 0,0 l/m 22,6 km/h (4 Bft) S-SW 197 0 min 132 W/m 2,4 C -6,4 C 33,8 km/h (5 Bft)
01.02.2018 11:24 3,4 C 94 % 993,3 hPa 0,0 l/m 25,0 km/h (4 Bft) SW 232 0 min 72 W/m 2,5 C -7,1 C 40,2 km/h (6 Bft)
01.02.2018 11:27 3,4 C 93 % 993,3 hPa 0,0 l/m 25,3 km/h (4 Bft) SW 227 0 min 142 W/m 2,4 C -7,2 C 37,0 km/h (5 Bft)
01.02.2018 11:30 3,4 C 93 % 993,3 hPa 0,0 l/m 25,5 km/h (4 Bft) S-SW 206 0 min 116 W/m 2,4 C -7,3 C 38,6 km/h (6 Bft)
01.02.2018 11:33 3,5 C 93 % 993,3 hPa 0,0 l/m 21,3 km/h (4 Bft) S-SW 211 0 min 135 W/m 2,5 C -5,6 C 32,2 km/h (5 Bft)
01.02.2018 11:36 3,6 C 93 % 993,3 hPa 0,0 l/m 26,5 km/h (4 Bft) W-SW 242 3 min 186 W/m 2,6 C -7,3 C 37,0 km/h (5 Bft)
01.02.2018 11:39 3,7 C 93 % 993,3 hPa 0,0 l/m 22,2 km/h (4 Bft) SW 236 0 min 163 W/m 2,7 C -5,7 C 35,4 km/h (5 Bft)
01.02.2018 11:42 3,7 C 93 % 993,4 hPa 0,0 l/m 21,2 km/h (4 Bft) SW 216 3 min 221 W/m 2,7 C -5,3 C 30,6 km/h (5 Bft)
01.02.2018 11:45 3,8 C 93 % 993,4 hPa 0,0 l/m 22,9 km/h (4 Bft) W-SW 251 3 min 202 W/m 2,8 C -5,8 C 35,4 km/h (5 Bft)
01.02.2018 11:48 3,8 C 92 % 993,3 hPa 0,0 l/m 26,1 km/h (4 Bft) S-SW 207 0 min 113 W/m 2,6 C -6,9 C 40,2 km/h (6 Bft)
01.02.2018 11:51 3,8 C 92 % 993,3 hPa 0,0 l/m 27,4 km/h (5 Bft) SW 234 3 min 239 W/m 2,6 C -7,3 C 38,6 km/h (6 Bft)
01.02.2018 11:54 3,9 C 92 % 993,3 hPa 0,0 l/m 24,4 km/h (4 Bft) S-SW 205 3 min 352 W/m 2,7 C -6,2 C 41,8 km/h (6 Bft)
01.02.2018 11:57 4,1 C 92 % 993,3 hPa 0,0 l/m 23,1 km/h (4 Bft) S-SW 207 3 min 292 W/m 2,9 C -5,5 C 37,0 km/h (5 Bft)
01.02.2018 12:00 4,1 C 91 % 993,3 hPa 0,0 l/m 24,8 km/h (4 Bft) W-SW 244 0 min 109 W/m 2,8 C -6,1 C 35,4 km/h (5 Bft)
01.02.2018 12:03 4,0 C 91 % 993,4 hPa 0,0 l/m 23,0 km/h (4 Bft) SW 224 0 min 102 W/m 2,7 C -5,6 C 33,8 km/h (5 Bft)
01.02.2018 12:06 3,9 C 91 % 993,3 hPa 0,0 l/m 24,8 km/h (4 Bft) SW 235 0 min 137 W/m 2,6 C -6,4 C 37,0 km/h (5 Bft)
01.02.2018 12:09 3,9 C 91 % 993,3 hPa 0,0 l/m 25,3 km/h (4 Bft) SW 235 0 min 97 W/m 2,6 C -6,5 C 40,2 km/h (6 Bft)
01.02.2018 12:12 3,9 C 91 % 993,3 hPa 0,0 l/m 19,7 km/h (3 Bft) S-SW 207 0 min 123 W/m 2,6 C -4,5 C 25,7 km/h (4 Bft)
01.02.2018 12:15 4,0 C 91 % 993,3 hPa 0,0 l/m 22,2 km/h (4 Bft) SW 228 0 min 176 W/m 2,7 C -5,3 C 37,0 km/h (5 Bft)
01.02.2018 12:18 4,1 C 91 % 993,2 hPa 0,0 l/m 19,2 km/h (3 Bft) SW 235 0 min 172 W/m 2,8 C -4,0 C 30,6 km/h (5 Bft)
01.02.2018 12:21 4,2 C 91 % 993,3 hPa 0,0 l/m 19,8 km/h (3 Bft) S-SW 209 0 min 172 W/m 2,9 C -4,1 C 27,4 km/h (5 Bft)
01.02.2018 12:24 4,3 C 91 % 993,3 hPa 0,0 l/m 27,8 km/h (5 Bft) SW 226 3 min 301 W/m 3,0 C -6,8 C 40,2 km/h (6 Bft)
01.02.2018 12:27 4,2 C 91 % 993,3 hPa 0,0 l/m 23,1 km/h (4 Bft) SW 221 0 min 84 W/m 2,9 C -5,4 C 35,4 km/h (5 Bft)
01.02.2018 12:30 4,2 C 91 % 993,3 hPa 0,0 l/m 23,0 km/h (4 Bft) SW 235 0 min 51 W/m 2,9 C -5,3 C 35,4 km/h (5 Bft)
01.02.2018 12:33 4,2 C 91 % 993,4 hPa 0,0 l/m 22,2 km/h (4 Bft) W-SW 249 0 min 62 W/m 2,9 C -5,1 C 38,6 km/h (6 Bft)
01.02.2018 12:36 4,2 C 91 % 993,3 hPa 0,0 l/m 18,8 km/h (3 Bft) SW 230 0 min 74 W/m 2,9 C -3,7 C 29,0 km/h (5 Bft)
01.02.2018 12:39 4,1 C 91 % 993,4 hPa 0,0 l/m 23,2 km/h (4 Bft) SW 232 0 min 28 W/m 2,8 C -5,6 C 33,8 km/h (5 Bft)
01.02.2018 12:42 4,1 C 91 % 993,4 hPa 0,0 l/m 25,4 km/h (4 Bft) W-SW 244 0 min 63 W/m 2,8 C -6,3 C 37,0 km/h (5 Bft)
01.02.2018 12:45 4,1 C 91 % 993,4 hPa 0,0 l/m 22,5 km/h (4 Bft) W-SW 242 0 min 40 W/m 2,8 C -5,3 C 30,6 km/h (5 Bft)
01.02.2018 12:48 4,0 C 91 % 993,4 hPa 0,0 l/m 25,4 km/h (4 Bft) S-SW 207 0 min 44 W/m 2,7 C -6,4 C 35,4 km/h (5 Bft)
01.02.2018 12:51 4,0 C 91 % 993,3 hPa 0,0 l/m 23,2 km/h (4 Bft) S-SW 211 0 min 37 W/m 2,7 C -5,7 C 37,0 km/h (5 Bft)
01.02.2018 12:54 3,9 C 91 % 993,4 hPa 0,0 l/m 22,1 km/h (4 Bft) S-SW 200 0 min 83 W/m 2,6 C -5,4 C 38,6 km/h (6 Bft)
01.02.2018 12:57 3,9 C 91 % 993,4 hPa 0,0 l/m 22,9 km/h (4 Bft) SW 228 0 min 47 W/m 2,6 C -5,7 C 37,0 km/h (5 Bft)
01.02.2018 13:00 3,9 C 91 % 993,3 hPa 0,0 l/m 23,6 km/h (4 Bft) S-SW 202 0 min 40 W/m 2,6 C -6,0 C 41,8 km/h (6 Bft)
01.02.2018 13:03 3,9 C 91 % 993,4 hPa 0,0 l/m 25,9 km/h (4 Bft) SW 236 0 min 77 W/m 2,6 C -6,7 C 37,0 km/h (5 Bft)
01.02.2018 13:06 3,9 C 90 % 993,3 hPa 0,0 l/m 28,3 km/h (5 Bft) W-SW 238 0 min 49 W/m 2,4 C -7,4 C 38,6 km/h (6 Bft)
01.02.2018 13:09 3,9 C 90 % 993,3 hPa 0,0 l/m 24,7 km/h (4 Bft) SW 226 0 min 53 W/m 2,4 C -6,3 C 35,4 km/h (5 Bft)
01.02.2018 13:12 3,9 C 90 % 993,3 hPa 0,0 l/m 20,0 km/h (4 Bft) SW 221 0 min 60 W/m 2,4 C -4,6 C 29,0 km/h (5 Bft)
01.02.2018 13:15 3,9 C 90 % 993,4 hPa 0,0 l/m 21,3 km/h (4 Bft) W-SW 238 0 min 97 W/m 2,4 C -5,1 C 40,2 km/h (6 Bft)
01.02.2018 13:18 4,0 C 90 % 993,3 hPa 0,0 l/m 23,2 km/h (4 Bft) SW 225 0 min 54 W/m 2,5 C -5,7 C 40,2 km/h (6 Bft)
01.02.2018 13:21 4,0 C 90 % 993,3 hPa 0,0 l/m 22,2 km/h (4 Bft) S-SW 200 0 min 58 W/m 2,5 C -5,3 C 37,0 km/h (5 Bft)
01.02.2018 13:24 4,0 C 90 % 993,3 hPa 0,0 l/m 19,5 km/h (3 Bft) W-SW 238 0 min 76 W/m 2,5 C -4,3 C 27,4 km/h (5 Bft)
01.02.2018 13:27 4,1 C 90 % 993,3 hPa 0,0 l/m 19,1 km/h (3 Bft) SW 215 0 min 58 W/m 2,6 C -4,0 C 29,0 km/h (5 Bft)
01.02.2018 13:30 4,1 C 90 % 993,3 hPa 0,0 l/m 20,4 km/h (4 Bft) W-SW 240 0 min 90 W/m 2,6 C -4,5 C 30,6 km/h (5 Bft)
01.02.2018 13:33 4,0 C 90 % 993,3 hPa 0,0 l/m 18,3 km/h (3 Bft) S-SW 210 0 min 72 W/m 2,5 C -3,7 C 33,8 km/h (5 Bft)
01.02.2018 13:36 4,1 C 90 % 993,3 hPa 0,0 l/m 18,3 km/h (3 Bft) SW 217 0 min 58 W/m 2,6 C -3,6 C 27,4 km/h (5 Bft)
01.02.2018 13:39 4,1 C 90 % 993,3 hPa 0,0 l/m 18,1 km/h (3 Bft) SW 234 0 min 86 W/m 2,6 C -3,5 C 27,4 km/h (5 Bft)
01.02.2018 13:42 4,1 C 90 % 993,3 hPa 0,0 l/m 20,3 km/h (4 Bft) SW 214 0 min 51 W/m 2,6 C -4,5 C 30,6 km/h (5 Bft)
01.02.2018 13:45 4,0 C 90 % 993,4 hPa 0,0 l/m 21,1 km/h (4 Bft) W-SW 242 0 min 40 W/m 2,5 C -4,9 C 33,8 km/h (5 Bft)
01.02.2018 13:48 4,0 C 90 % 993,5 hPa 0,0 l/m 23,1 km/h (4 Bft) SW 235 0 min 23 W/m 2,5 C -5,6 C 33,8 km/h (5 Bft)
01.02.2018 13:51 3,9 C 90 % 993,5 hPa 0,0 l/m 22,7 km/h (4 Bft) W-SW 239 0 min 26 W/m 2,4 C -5,6 C 32,2 km/h (5 Bft)
01.02.2018 13:54 3,9 C 90 % 993,5 hPa 0,0 l/m 17,7 km/h (3 Bft) S-SW 212 0 min 16 W/m 2,4 C -3,6 C 25,7 km/h (4 Bft)
01.02.2018 13:57 3,9 C 90 % 993,6 hPa 0,0 l/m 17,3 km/h (3 Bft) SW 214 0 min 40 W/m 2,4 C -3,4 C 25,7 km/h (4 Bft)
01.02.2018 14:00 3,9 C 90 % 993,6 hPa 0,0 l/m 20,9 km/h (4 Bft) SW 233 0 min 37 W/m 2,4 C -5,0 C 32,2 km/h (5 Bft)
01.02.2018 14:03 3,9 C 90 % 993,6 hPa 0,0 l/m 14,8 km/h (3 Bft) S-SW 211 0 min 62 W/m 2,4 C -2,1 C 22,5 km/h (4 Bft)
01.02.2018 14:06 3,9 C 90 % 993,6 hPa 0,0 l/m 21,5 km/h (4 Bft) SW 217 0 min 67 W/m 2,4 C -5,2 C 33,8 km/h (5 Bft)
01.02.2018 14:09 3,8 C 90 % 993,6 hPa 0,0 l/m 23,6 km/h (4 Bft) W-SW 243 0 min 79 W/m 2,3 C -6,1 C 37,0 km/h (5 Bft)
01.02.2018 14:12 3,9 C 90 % 993,5 hPa 0,0 l/m 18,6 km/h (3 Bft) S-SW 201 0 min 104 W/m 2,4 C -4,0 C 32,2 km/h (5 Bft)
01.02.2018 14:15 3,9 C 90 % 993,5 hPa 0,0 l/m 19,6 km/h (3 Bft) SW 229 0 min 104 W/m 2,4 C -4,4 C 33,8 km/h (5 Bft)
01.02.2018 14:18 3,9 C 90 % 993,5 hPa 0,0 l/m 17,6 km/h (3 Bft) S-SW 194 0 min 105 W/m 2,4 C -3,5 C 24,1 km/h (4 Bft)
01.02.2018 14:21 4,0 C 90 % 993,4 hPa 0,0 l/m 18,8 km/h (3 Bft) W-SW 243 0 min 104 W/m 2,5 C -4,0 C 32,2 km/h (5 Bft)
01.02.2018 14:24 4,0 C 90 % 993,4 hPa 0,0 l/m 20,3 km/h (4 Bft) S-SW 211 0 min 62 W/m 2,5 C -4,6 C 35,4 km/h (5 Bft)
01.02.2018 14:27 4,1 C 90 % 993,4 hPa 0,0 l/m 20,5 km/h (4 Bft) SW 221 0 min 77 W/m 2,6 C -4,5 C 33,8 km/h (5 Bft)
01.02.2018 14:30 4,1 C 90 % 993,3 hPa 0,0 l/m 21,2 km/h (4 Bft) SW 215 0 min 121 W/m 2,6 C -4,8 C 37,0 km/h (5 Bft)
01.02.2018 14:33 4,0 C 90 % 993,3 hPa 0,0 l/m 22,3 km/h (4 Bft) S-SW 198 0 min 79 W/m 2,5 C -5,4 C 32,2 km/h (5 Bft)
01.02.2018 14:36 4,1 C 90 % 993,4 hPa 0,0 l/m 18,1 km/h (3 Bft) S-SW 204 0 min 141 W/m 2,6 C -3,5 C 27,4 km/h (5 Bft)
01.02.2018 14:39 4,2 C 90 % 993,4 hPa 0,0 l/m 21,3 km/h (4 Bft) S-SW 211 3 min 179 W/m 2,7 C -4,7 C 32,2 km/h (5 Bft)
01.02.2018 14:42 4,2 C 90 % 993,3 hPa 0,0 l/m 20,7 km/h (4 Bft) SW 221 3 min 183 W/m 2,7 C -4,5 C 30,6 km/h (5 Bft)
01.02.2018 14:45 4,2 C 90 % 993,3 hPa 0,0 l/m 21,8 km/h (4 Bft) W-SW 256 0 min 81 W/m 2,7 C -4,9 C 32,2 km/h (5 Bft)
01.02.2018 14:48 4,2 C 90 % 993,4 hPa 0,0 l/m 20,6 km/h (4 Bft) SW 215 0 min 47 W/m 2,7 C -4,4 C 32,2 km/h (5 Bft)
01.02.2018 14:51 4,2 C 90 % 993,3 hPa 0,0 l/m 19,7 km/h (3 Bft) S-SW 211 0 min 84 W/m 2,7 C -4,1 C 27,4 km/h (5 Bft)
01.02.2018 14:54 4,2 C 90 % 993,4 hPa 0,0 l/m 17,9 km/h (3 Bft) SW 233 0 min 56 W/m 2,7 C -3,3 C 32,2 km/h (5 Bft)
01.02.2018 14:57 4,2 C 90 % 993,2 hPa 0,0 l/m 20,7 km/h (4 Bft) W-SW 241 0 min 90 W/m 2,7 C -4,5 C 35,4 km/h (5 Bft)
01.02.2018 15:00 4,2 C 90 % 993,3 hPa 0,0 l/m 18,2 km/h (3 Bft) SW 222 0 min 51 W/m 2,7 C -3,4 C 27,4 km/h (5 Bft)
01.02.2018 15:03 4,2 C 90 % 993,4 hPa 0,0 l/m 17,7 km/h (3 Bft) SW 220 0 min 53 W/m 2,7 C -3,2 C 25,7 km/h (4 Bft)
01.02.2018 15:06 4,1 C 90 % 993,3 hPa 0,0 l/m 21,3 km/h (4 Bft) W-SW 239 0 min 28 W/m 2,6 C -4,9 C 32,2 km/h (5 Bft)
01.02.2018 15:09 4,1 C 90 % 993,5 hPa 0,0 l/m 20,3 km/h (4 Bft) S-SW 203 0 min 53 W/m 2,6 C -4,5 C 32,2 km/h (5 Bft)
01.02.2018 15:12 4,1 C 90 % 993,5 hPa 0,0 l/m 20,1 km/h (4 Bft) S 191 0 min 28 W/m 2,6 C -4,4 C 30,6 km/h (5 Bft)
01.02.2018 15:15 4,1 C 90 % 993,6 hPa 0,0 l/m 22,5 km/h (4 Bft) SW 234 0 min 26 W/m 2,6 C -5,3 C 32,2 km/h (5 Bft)
01.02.2018 15:18 4,1 C 90 % 993,6 hPa 0,0 l/m 19,2 km/h (3 Bft) S-SW 200 0 min 30 W/m 2,6 C -4,0 C 35,4 km/h (5 Bft)
01.02.2018 15:21 4,1 C 90 % 993,6 hPa 0,0 l/m 21,7 km/h (4 Bft) SW 223 0 min 25 W/m 2,6 C -5,0 C 30,6 km/h (5 Bft)
01.02.2018 15:24 4,1 C 90 % 993,6 hPa 0,0 l/m 22,2 km/h (4 Bft) S-SW 205 0 min 58 W/m 2,6 C -5,2 C 32,2 km/h (5 Bft)
01.02.2018 15:27 4,1 C 90 % 993,6 hPa 0,0 l/m 21,5 km/h (4 Bft) W-SW 237 0 min 53 W/m 2,6 C -4,9 C 30,6 km/h (5 Bft)
01.02.2018 15:30 4,1 C 90 % 993,7 hPa 0,0 l/m 19,3 km/h (3 Bft) SW 236 0 min 46 W/m 2,6 C -4,0 C 29,0 km/h (5 Bft)
01.02.2018 15:33 4,1 C 90 % 993,6 hPa 0,0 l/m 16,9 km/h (3 Bft) SW 228 0 min 28 W/m 2,6 C -3,0 C 27,4 km/h (5 Bft)
01.02.2018 15:36 4,1 C 89 % 993,6 hPa 0,0 l/m 20,8 km/h (4 Bft) SW 219 0 min 28 W/m 2,5 C -4,7 C 30,6 km/h (5 Bft)
01.02.2018 15:39 4,1 C 89 % 993,5 hPa 0,0 l/m 16,3 km/h (3 Bft) SW 236 0 min 33 W/m 2,5 C -2,7 C 30,6 km/h (5 Bft)
01.02.2018 15:42 4,1 C 89 % 993,5 hPa 0,0 l/m 17,9 km/h (3 Bft) S-SW 213 0 min 44 W/m 2,5 C -3,4 C 25,7 km/h (4 Bft)
01.02.2018 15:45 4,1 C 89 % 993,6 hPa 0,0 l/m 19,5 km/h (3 Bft) SW 233 0 min 54 W/m 2,5 C -4,1 C 35,4 km/h (5 Bft)
01.02.2018 15:48 4,1 C 89 % 993,6 hPa 0,0 l/m 18,4 km/h (3 Bft) SW 216 0 min 74 W/m 2,5 C -3,7 C 29,0 km/h (5 Bft)
01.02.2018 15:51 4,1 C 89 % 993,6 hPa 0,0 l/m 21,6 km/h (4 Bft) SW 225 0 min 44 W/m 2,5 C -5,0 C 35,4 km/h (5 Bft)
01.02.2018 15:54 4,1 C 89 % 993,5 hPa 0,0 l/m 18,0 km/h (3 Bft) SW 223 0 min 30 W/m 2,5 C -3,5 C 29,0 km/h (5 Bft)
01.02.2018 15:57 4,1 C 89 % 993,5 hPa 0,0 l/m 18,4 km/h (3 Bft) S-SW 200 0 min 44 W/m 2,5 C -3,7 C 29,0 km/h (5 Bft)
01.02.2018 16:00 4,1 C 89 % 993,5 hPa 0,0 l/m 18,8 km/h (3 Bft) SW 224 0 min 37 W/m 2,5 C -3,8 C 27,4 km/h (5 Bft)
01.02.2018 16:03 4,1 C 89 % 993,5 hPa 0,0 l/m 18,3 km/h (3 Bft) S 184 0 min 35 W/m 2,5 C -3,6 C 29,0 km/h (5 Bft)
01.02.2018 16:06 4,1 C 89 % 993,4 hPa 0,0 l/m 15,4 km/h (3 Bft) SW 225 0 min 25 W/m 2,5 C -2,2 C 24,1 km/h (4 Bft)
01.02.2018 16:09 4,1 C 89 % 993,4 hPa 0,0 l/m 16,5 km/h (3 Bft) S-SW 209 0 min 26 W/m 2,5 C -2,8 C 25,7 km/h (4 Bft)
01.02.2018 16:12 4,1 C 89 % 993,4 hPa 0,0 l/m 20,7 km/h (4 Bft) SW 234 0 min 19 W/m 2,5 C -4,6 C 33,8 km/h (5 Bft)
01.02.2018 16:15 4,1 C 89 % 993,4 hPa 0,0 l/m 15,9 km/h (3 Bft) S-SW 197 0 min 14 W/m 2,5 C -2,5 C 24,1 km/h (4 Bft)
01.02.2018 16:18 4,1 C 89 % 993,4 hPa 0,0 l/m 18,1 km/h (3 Bft) SW 227 0 min 21 W/m 2,5 C -3,5 C 29,0 km/h (5 Bft)
01.02.2018 16:21 4,0 C 89 % 993,4 hPa 0,0 l/m 17,8 km/h (3 Bft) S-SW 204 0 min 25 W/m 2,4 C -3,5 C 24,1 km/h (4 Bft)
01.02.2018 16:24 4,0 C 89 % 993,5 hPa 0,0 l/m 16,2 km/h (3 Bft) S-SW 203 0 min 19 W/m 2,4 C -2,8 C 27,4 km/h (5 Bft)
01.02.2018 16:27 4,0 C 89 % 993,5 hPa 0,0 l/m 20,7 km/h (4 Bft) S 186 0 min 23 W/m 2,4 C -4,7 C 32,2 km/h (5 Bft)
01.02.2018 16:30 4,0 C 89 % 993,5 hPa 0,0 l/m 16,9 km/h (3 Bft) SW 227 0 min 25 W/m 2,4 C -3,1 C 24,1 km/h (4 Bft)
01.02.2018 16:33 4,0 C 89 % 993,5 hPa 0,0 l/m 18,4 km/h (3 Bft) SW 225 0 min 26 W/m 2,4 C -3,8 C 25,7 km/h (4 Bft)
01.02.2018 16:36 4,0 C 89 % 993,4 hPa 0,0 l/m 19,6 km/h (3 Bft) S-SW 205 0 min 25 W/m 2,4 C -4,3 C 30,6 km/h (5 Bft)
01.02.2018 16:39 3,9 C 89 % 993,4 hPa 0,0 l/m 17,3 km/h (3 Bft) S-SW 207 0 min 16 W/m 2,3 C -3,4 C 27,4 km/h (5 Bft)
01.02.2018 16:42 3,9 C 89 % 993,3 hPa 0,0 l/m 14,7 km/h (3 Bft) SW 217 0 min 14 W/m 2,3 C -2,1 C 22,5 km/h (4 Bft)
01.02.2018 16:45 3,9 C 89 % 993,4 hPa 0,0 l/m 19,9 km/h (4 Bft) S 171 0 min 12 W/m 2,3 C -4,6 C 32,2 km/h (5 Bft)
01.02.2018 16:48 3,8 C 89 % 993,4 hPa 0,0 l/m 17,6 km/h (3 Bft) SW 236 0 min 12 W/m 2,2 C -3,7 C 33,8 km/h (5 Bft)
01.02.2018 16:51 3,8 C 89 % 993,4 hPa 0,0 l/m 14,2 km/h (3 Bft) S-SW 210 3 min 11 W/m 2,2 C -1,9 C 27,4 km/h (5 Bft)
01.02.2018 16:54 3,7 C 89 % 993,4 hPa 0,0 l/m 14,8 km/h (3 Bft) S-SW 208 0 min 9 W/m 2,1 C -2,4 C 24,1 km/h (4 Bft)
01.02.2018 16:57 3,7 C 89 % 993,3 hPa 0,0 l/m 14,7 km/h (3 Bft) S-SW 211 0 min 7 W/m 2,1 C -2,3 C 25,7 km/h (4 Bft)
01.02.2018 17:00 3,7 C 89 % 993,3 hPa 0,0 l/m 13,5 km/h (3 Bft) S 178 0 min 5 W/m 2,1 C -1,7 C 22,5 km/h (4 Bft)
01.02.2018 17:03 3,6 C 89 % 993,4 hPa 0,0 l/m 12,9 km/h (3 Bft) S 178 0 min 5 W/m 2,0 C -1,4 C 20,9 km/h (4 Bft)
01.02.2018 17:06 3,6 C 89 % 993,4 hPa 0,0 l/m 15,2 km/h (3 Bft) S-SW 209 0 min 0 W/m 2,0 C -2,7 C 24,1 km/h (4 Bft)
01.02.2018 17:09 3,6 C 90 % 993,4 hPa 0,0 l/m 13,8 km/h (3 Bft) S-SW 193 0 min 0 W/m 2,1 C -2,0 C 25,7 km/h (4 Bft)
01.02.2018 17:12 3,5 C 90 % 993,4 hPa 0,0 l/m 15,7 km/h (3 Bft) S-SW 204 0 min 0 W/m 2,0 C -3,1 C 22,5 km/h (4 Bft)
01.02.2018 17:15 3,5 C 90 % 993,3 hPa 0,0 l/m 17,8 km/h (3 Bft) S 180 0 min 0 W/m 2,0 C -4,1 C 25,7 km/h (4 Bft)
01.02.2018 17:18 3,4 C 90 % 993,3 hPa 0,0 l/m 15,1 km/h (3 Bft) S 186 0 min 0 W/m 1,9 C -2,9 C 24,1 km/h (4 Bft)
01.02.2018 17:21 3,4 C 90 % 993,3 hPa 0,0 l/m 17,0 km/h (3 Bft) SW 227 0 min 0 W/m 1,9 C -3,9 C 27,4 km/h (5 Bft)
01.02.2018 17:24 3,4 C 90 % 993,4 hPa 0,0 l/m 17,2 km/h (3 Bft) S-SW 193 0 min 0 W/m 1,9 C -4,0 C 29,0 km/h (5 Bft)
01.02.2018 17:27 3,4 C 90 % 993,4 hPa 0,0 l/m 16,6 km/h (3 Bft) S 186 0 min 0 W/m 1,9 C -3,7 C 32,2 km/h (5 Bft)
01.02.2018 17:30 3,4 C 90 % 993,4 hPa 0,0 l/m 17,5 km/h (3 Bft) W-SW 237 0 min 0 W/m 1,9 C -4,1 C 25,7 km/h (4 Bft)
01.02.2018 17:33 3,4 C 90 % 993,4 hPa 0,0 l/m 15,8 km/h (3 Bft) SW 219 0 min 0 W/m 1,9 C -3,3 C 30,6 km/h (5 Bft)
01.02.2018 17:36 3,4 C 90 % 993,4 hPa 0,0 l/m 18,1 km/h (3 Bft) SW 232 0 min 0 W/m 1,9 C -4,4 C 29,0 km/h (5 Bft)
01.02.2018 17:39 3,4 C 90 % 993,3 hPa 0,0 l/m 16,6 km/h (3 Bft) SW 224 0 min 0 W/m 1,9 C -3,7 C 27,4 km/h (5 Bft)
01.02.2018 17:42 3,4 C 90 % 993,3 hPa 0,0 l/m 17,0 km/h (3 Bft) S-SW 209 0 min 0 W/m 1,9 C -3,9 C 29,0 km/h (5 Bft)
01.02.2018 17:45 3,4 C 90 % 993,4 hPa 0,0 l/m 19,5 km/h (3 Bft) W-SW 241 0 min 0 W/m 1,9 C -5,0 C 35,4 km/h (5 Bft)
01.02.2018 17:48 3,4 C 90 % 993,5 hPa 0,0 l/m 20,0 km/h (4 Bft) S-SW 199 0 min 0 W/m 1,9 C -5,2 C 29,0 km/h (5 Bft)
01.02.2018 17:51 3,4 C 90 % 993,5 hPa 0,0 l/m 17,8 km/h (3 Bft) S-SW 209 0 min 0 W/m 1,9 C -4,3 C 25,7 km/h (4 Bft)
01.02.2018 17:54 3,4 C 90 % 993,4 hPa 0,0 l/m 18,8 km/h (3 Bft) S-SW 211 0 min 0 W/m 1,9 C -4,7 C 30,6 km/h (5 Bft)
01.02.2018 17:57 3,4 C 90 % 993,3 hPa 0,0 l/m 21,3 km/h (4 Bft) W-SW 242 0 min 0 W/m 1,9 C -5,8 C 30,6 km/h (5 Bft)
01.02.2018 18:00 3,4 C 90 % 993,4 hPa 0,0 l/m 17,8 km/h (3 Bft) SW 226 0 min 0 W/m 1,9 C -4,3 C 27,4 km/h (5 Bft)
01.02.2018 18:03 3,4 C 90 % 993,4 hPa 0,0 l/m 17,7 km/h (3 Bft) SW 215 0 min 0 W/m 1,9 C -4,2 C 30,6 km/h (5 Bft)
01.02.2018 18:06 3,4 C 90 % 993,4 hPa 0,0 l/m 18,9 km/h (3 Bft) SW 228 0 min 0 W/m 1,9 C -4,8 C 29,0 km/h (5 Bft)
01.02.2018 18:09 3,5 C 90 % 993,4 hPa 0,0 l/m 17,8 km/h (3 Bft) W-SW 240 0 min 0 W/m 2,0 C -4,1 C 27,4 km/h (5 Bft)
01.02.2018 18:12 3,4 C 90 % 993,3 hPa 0,0 l/m 20,2 km/h (4 Bft) SW 225 0 min 0 W/m 1,9 C -5,3 C 38,6 km/h (6 Bft)
01.02.2018 18:15 3,5 C 90 % 993,5 hPa 0,0 l/m 18,4 km/h (3 Bft) SW 214 0 min 0 W/m 2,0 C -4,4 C 27,4 km/h (5 Bft)
01.02.2018 18:18 3,5 C 90 % 993,5 hPa 0,0 l/m 18,2 km/h (3 Bft) SW 232 0 min 0 W/m 2,0 C -4,3 C 27,4 km/h (5 Bft)
01.02.2018 18:21 3,5 C 90 % 993,5 hPa 0,0 l/m 19,2 km/h (3 Bft) W-SW 246 0 min 0 W/m 2,0 C -4,8 C 32,2 km/h (5 Bft)
01.02.2018 18:24 3,6 C 90 % 993,4 hPa 0,0 l/m 21,2 km/h (4 Bft) W-SW 257 0 min 0 W/m 2,1 C -5,5 C 33,8 km/h (5 Bft)
01.02.2018 18:27 3,6 C 90 % 993,5 hPa 0,0 l/m 19,0 km/h (3 Bft) SW 232 0 min 0 W/m 2,1 C -4,6 C 33,8 km/h (5 Bft)
01.02.2018 18:30 3,6 C 90 % 993,4 hPa 0,0 l/m 20,5 km/h (4 Bft) S-SW 203 0 min 0 W/m 2,1 C -5,2 C 33,8 km/h (5 Bft)
01.02.2018 18:33 3,6 C 90 % 993,4 hPa 0,0 l/m 19,1 km/h (3 Bft) SW 229 0 min 0 W/m 2,1 C -4,6 C 35,4 km/h (5 Bft)
01.02.2018 18:36 3,5 C 90 % 993,4 hPa 0,0 l/m 18,8 km/h (3 Bft) SW 220 0 min 0 W/m 2,0 C -4,6 C 35,4 km/h (5 Bft)
01.02.2018 18:39 3,5 C 90 % 993,4 hPa 0,0 l/m 15,6 km/h (3 Bft) S-SW 198 0 min 0 W/m 2,0 C -3,1 C 25,7 km/h (4 Bft)
01.02.2018 18:42 3,4 C 90 % 993,4 hPa 0,0 l/m 20,4 km/h (4 Bft) SW 223 0 min 0 W/m 1,9 C -5,4 C 37,0 km/h (5 Bft)
01.02.2018 18:45 3,5 C 90 % 993,4 hPa 0,0 l/m 18,6 km/h (3 Bft) S-SW 207 0 min 0 W/m 2,0 C -4,5 C 29,0 km/h (5 Bft)
01.02.2018 18:48 3,4 C 90 % 993,4 hPa 0,0 l/m 20,8 km/h (4 Bft) S-SW 209 0 min 0 W/m 1,9 C -5,6 C 30,6 km/h (5 Bft)
01.02.2018 18:51 3,4 C 90 % 993,3 hPa 0,0 l/m 18,2 km/h (3 Bft) S-SW 196 0 min 0 W/m 1,9 C -4,5 C 29,0 km/h (5 Bft)
01.02.2018 18:54 3,4 C 90 % 993,3 hPa 0,0 l/m 18,6 km/h (3 Bft) SW 217 0 min 0 W/m 1,9 C -4,6 C 29,0 km/h (5 Bft)
01.02.2018 18:57 3,4 C 90 % 993,4 hPa 0,0 l/m 20,2 km/h (4 Bft) S-SW 203 0 min 0 W/m 1,9 C -5,3 C 30,6 km/h (5 Bft)
01.02.2018 19:00 3,4 C 90 % 993,4 hPa 0,0 l/m 17,8 km/h (3 Bft) SW 219 0 min 0 W/m 1,9 C -4,3 C 29,0 km/h (5 Bft)
01.02.2018 19:03 3,4 C 90 % 993,5 hPa 0,0 l/m 16,3 km/h (3 Bft) SW 215 0 min 0 W/m 1,9 C -3,5 C 30,6 km/h (5 Bft)
01.02.2018 19:06 3,4 C 91 % 993,5 hPa 0,0 l/m 21,2 km/h (4 Bft) S-SW 192 0 min 0 W/m 2,1 C -5,7 C 33,8 km/h (5 Bft)
01.02.2018 19:09 3,4 C 91 % 993,4 hPa 0,0 l/m 19,8 km/h (3 Bft) S 188 0 min 0 W/m 2,1 C -5,2 C 32,2 km/h (5 Bft)
01.02.2018 19:12 3,4 C 90 % 993,3 hPa 0,0 l/m 19,7 km/h (3 Bft) W-SW 257 0 min 0 W/m 1,9 C -5,1 C 40,2 km/h (6 Bft)
01.02.2018 19:15 3,3 C 90 % 993,4 hPa 0,0 l/m 19,8 km/h (3 Bft) W-SW 240 0 min 0 W/m 1,8 C -5,3 C 30,6 km/h (5 Bft)
01.02.2018 19:18 3,3 C 90 % 993,4 hPa 0,0 l/m 21,9 km/h (4 Bft) S-SW 213 0 min 0 W/m 1,8 C -6,1 C 33,8 km/h (5 Bft)
01.02.2018 19:21 3,3 C 90 % 993,4 hPa 0,0 l/m 22,5 km/h (4 Bft) SW 218 0 min 0 W/m 1,8 C -6,4 C 33,8 km/h (5 Bft)
01.02.2018 19:24 3,3 C 91 % 993,5 hPa 0,0 l/m 19,4 km/h (3 Bft) SW 235 0 min 0 W/m 2,0 C -5,1 C 29,0 km/h (5 Bft)
01.02.2018 19:27 3,4 C 91 % 993,4 hPa 0,0 l/m 21,4 km/h (4 Bft) W-SW 248 0 min 0 W/m 2,1 C -5,8 C 32,2 km/h (5 Bft)
01.02.2018 19:30 3,3 C 91 % 993,5 hPa 0,0 l/m 20,2 km/h (4 Bft) SW 231 0 min 0 W/m 2,0 C -5,5 C 33,8 km/h (5 Bft)
01.02.2018 19:33 3,3 C 91 % 993,6 hPa 0,0 l/m 21,9 km/h (4 Bft) SW 236 0 min 0 W/m 2,0 C -6,1 C 46,7 km/h (6 Bft)
01.02.2018 19:36 3,4 C 91 % 993,6 hPa 0,0 l/m 20,2 km/h (4 Bft) S-SW 206 0 min 0 W/m 2,1 C -5,3 C 32,2 km/h (5 Bft)
01.02.2018 19:39 3,3 C 91 % 993,6 hPa 0,0 l/m 21,6 km/h (4 Bft) SW 224 0 min 0 W/m 2,0 C -6,0 C 38,6 km/h (6 Bft)
01.02.2018 19:42 3,3 C 91 % 993,6 hPa 0,0 l/m 24,9 km/h (4 Bft) SW 219 0 min 0 W/m 2,0 C -7,2 C 38,6 km/h (6 Bft)
01.02.2018 19:45 3,3 C 91 % 993,6 hPa 0,0 l/m 22,1 km/h (4 Bft) S-SW 212 0 min 0 W/m 2,0 C -6,2 C 35,4 km/h (5 Bft)
01.02.2018 19:48 3,3 C 91 % 993,5 hPa 0,0 l/m 23,9 km/h (4 Bft) S-SW 210 0 min 0 W/m 2,0 C -6,9 C 37,0 km/h (5 Bft)
01.02.2018 19:51 3,3 C 91 % 993,5 hPa 0,0 l/m 18,3 km/h (3 Bft) S 190 0 min 0 W/m 2,0 C -4,6 C 30,6 km/h (5 Bft)
01.02.2018 19:54 3,3 C 91 % 993,4 hPa 0,0 l/m 18,7 km/h (3 Bft) S-SW 213 0 min 0 W/m 2,0 C -4,8 C 25,7 km/h (4 Bft)
01.02.2018 19:57 3,3 C 91 % 993,4 hPa 0,0 l/m 18,2 km/h (3 Bft) S-SW 199 0 min 0 W/m 2,0 C -4,6 C 32,2 km/h (5 Bft)
01.02.2018 20:00 3,2 C 91 % 993,4 hPa 0,0 l/m 22,4 km/h (4 Bft) S-SW 200 0 min 0 W/m 1,9 C -6,5 C 33,8 km/h (5 Bft)
01.02.2018 20:03 3,2 C 91 % 993,4 hPa 0,0 l/m 23,0 km/h (4 Bft) S-SW 208 0 min 0 W/m 1,9 C -6,7 C 40,2 km/h (6 Bft)
01.02.2018 20:06 3,2 C 91 % 993,4 hPa 0,0 l/m 21,6 km/h (4 Bft) S-SW 198 0 min 0 W/m 1,9 C -6,1 C 32,2 km/h (5 Bft)
01.02.2018 20:09 3,2 C 91 % 993,5 hPa 0,0 l/m 24,6 km/h (4 Bft) W-SW 240 0 min 0 W/m 1,9 C -7,2 C 35,4 km/h (5 Bft)
01.02.2018 20:12 3,2 C 91 % 993,5 hPa 0,0 l/m 22,9 km/h (4 Bft) SW 229 0 min 0 W/m 1,9 C -6,6 C 35,4 km/h (5 Bft)
01.02.2018 20:15 3,2 C 91 % 993,5 hPa 0,0 l/m 22,4 km/h (4 Bft) SW 218 0 min 0 W/m 1,9 C -6,5 C 32,2 km/h (5 Bft)
01.02.2018 20:18 3,2 C 91 % 993,5 hPa 0,0 l/m 20,9 km/h (4 Bft) W-SW 248 0 min 0 W/m 1,9 C -5,9 C 35,4 km/h (5 Bft)
01.02.2018 20:21 3,2 C 92 % 993,6 hPa 0,0 l/m 20,2 km/h (4 Bft) SW 217 0 min 0 W/m 2,0 C -5,6 C 33,8 km/h (5 Bft)
01.02.2018 20:24 3,2 C 92 % 993,5 hPa 0,0 l/m 19,1 km/h (3 Bft) S-SW 207 0 min 0 W/m 2,0 C -5,1 C 29,0 km/h (5 Bft)
01.02.2018 20:27 3,2 C 92 % 993,4 hPa 0,0 l/m 21,8 km/h (4 Bft) S-SW 211 0 min 0 W/m 2,0 C -6,2 C 32,2 km/h (5 Bft)
01.02.2018 20:30 3,2 C 92 % 993,4 hPa 0,0 l/m 21,6 km/h (4 Bft) SW 231 0 min 0 W/m 2,0 C -6,1 C 33,8 km/h (5 Bft)
01.02.2018 20:33 3,2 C 92 % 993,5 hPa 0,0 l/m 22,5 km/h (4 Bft) SW 229 0 min 0 W/m 2,0 C -6,5 C 33,8 km/h (5 Bft)
01.02.2018 20:36 3,2 C 92 % 993,4 hPa 0,0 l/m 19,1 km/h (3 Bft) S-SW 206 0 min 0 W/m 2,0 C -5,1 C 37,0 km/h (5 Bft)
01.02.2018 20:39 3,2 C 92 % 993,4 hPa 0,0 l/m 23,9 km/h (4 Bft) S-SW 198 0 min 0 W/m 2,0 C -7,0 C 33,8 km/h (5 Bft)
01.02.2018 20:42 3,2 C 92 % 993,4 hPa 0,0 l/m 21,1 km/h (4 Bft) SW 216 0 min 0 W/m 2,0 C -5,9 C 29,0 km/h (5 Bft)
01.02.2018 20:45 3,2 C 92 % 993,4 hPa 0,0 l/m 23,1 km/h (4 Bft) S-SW 206 0 min 0 W/m 2,0 C -6,7 C 33,8 km/h (5 Bft)
01.02.2018 20:48 3,2 C 92 % 993,4 hPa 0,0 l/m 19,8 km/h (3 Bft) W-SW 244 0 min 0 W/m 2,0 C -5,4 C 30,6 km/h (5 Bft)
01.02.2018 20:51 3,2 C 92 % 993,5 hPa 0,0 l/m 19,7 km/h (3 Bft) SW 229 0 min 0 W/m 2,0 C -5,4 C 29,0 km/h (5 Bft)
01.02.2018 20:54 3,2 C 92 % 993,5 hPa 0,0 l/m 19,3 km/h (3 Bft) SW 220 0 min 0 W/m 2,0 C -5,2 C 25,7 km/h (4 Bft)
01.02.2018 20:57 3,2 C 92 % 993,5 hPa 0,0 l/m 18,9 km/h (3 Bft) SW 225 0 min 0 W/m 2,0 C -5,0 C 29,0 km/h (5 Bft)
01.02.2018 21:00 3,2 C 92 % 993,6 hPa 0,0 l/m 19,1 km/h (3 Bft) W-SW 242 0 min 0 W/m 2,0 C -5,1 C 32,2 km/h (5 Bft)
01.02.2018 21:03 3,2 C 92 % 993,7 hPa 0,0 l/m 21,6 km/h (4 Bft) SW 221 0 min 0 W/m 2,0 C -6,1 C 35,4 km/h (5 Bft)
01.02.2018 21:06 3,2 C 92 % 993,7 hPa 0,0 l/m 19,9 km/h (4 Bft) SW 221 0 min 0 W/m 2,0 C -5,5 C 37,0 km/h (5 Bft)
01.02.2018 21:09 3,2 C 92 % 993,6 hPa 0,0 l/m 19,1 km/h (3 Bft) S 174 0 min 0 W/m 2,0 C -5,1 C 32,2 km/h (5 Bft)
01.02.2018 21:12 3,2 C 92 % 993,6 hPa 0,0 l/m 16,6 km/h (3 Bft) S 191 0 min 0 W/m 2,0 C -3,9 C 25,7 km/h (4 Bft)
01.02.2018 21:15 3,2 C 92 % 993,6 hPa 0,0 l/m 19,5 km/h (3 Bft) SW 235 0 min 0 W/m 2,0 C -5,3 C 32,2 km/h (5 Bft)
01.02.2018 21:18 3,2 C 92 % 993,5 hPa 0,0 l/m 21,4 km/h (4 Bft) SW 220 0 min 0 W/m 2,0 C -6,1 C 32,2 km/h (5 Bft)
01.02.2018 21:21 3,2 C 92 % 993,6 hPa 0,0 l/m 20,3 km/h (4 Bft) SW 236 0 min 0 W/m 2,0 C -5,6 C 32,2 km/h (5 Bft)
01.02.2018 21:24 3,3 C 93 % 993,6 hPa 0,0 l/m 20,8 km/h (4 Bft) S-SW 207 0 min 0 W/m 2,3 C -5,7 C 33,8 km/h (5 Bft)
01.02.2018 21:27 3,3 C 93 % 993,5 hPa 0,0 l/m 20,9 km/h (4 Bft) SW 232 0 min 0 W/m 2,3 C -5,7 C 33,8 km/h (5 Bft)
01.02.2018 21:30 3,3 C 93 % 993,6 hPa 0,0 l/m 21,7 km/h (4 Bft) SW 232 0 min 0 W/m 2,3 C -6,1 C 29,0 km/h (5 Bft)
01.02.2018 21:33 3,3 C 93 % 993,6 hPa 0,0 l/m 20,1 km/h (4 Bft) SW 220 0 min 0 W/m 2,3 C -5,4 C 33,8 km/h (5 Bft)
01.02.2018 21:36 3,3 C 93 % 993,6 hPa 0,0 l/m 22,6 km/h (4 Bft) SW 236 0 min 0 W/m 2,3 C -6,4 C 30,6 km/h (5 Bft)
01.02.2018 21:39 3,3 C 93 % 993,6 hPa 0,0 l/m 21,8 km/h (4 Bft) S 186 0 min 0 W/m 2,3 C -6,1 C 35,4 km/h (5 Bft)
01.02.2018 21:42 3,3 C 93 % 993,7 hPa 0,0 l/m 22,1 km/h (4 Bft) SW 235 0 min 0 W/m 2,3 C -6,2 C 32,2 km/h (5 Bft)
01.02.2018 21:45 3,4 C 93 % 993,7 hPa 0,0 l/m 20,8 km/h (4 Bft) SW 215 0 min 0 W/m 2,4 C -5,6 C 32,2 km/h (5 Bft)
01.02.2018 21:48 3,4 C 93 % 993,7 hPa 0,0 l/m 18,7 km/h (3 Bft) SW 226 0 min 0 W/m 2,4 C -4,7 C 25,7 km/h (4 Bft)
01.02.2018 21:51 3,3 C 93 % 993,7 hPa 0,0 l/m 18,7 km/h (3 Bft) S-SW 199 0 min 0 W/m 2,3 C -4,8 C 27,4 km/h (5 Bft)
01.02.2018 21:54 3,4 C 93 % 993,7 hPa 0,0 l/m 23,4 km/h (4 Bft) SW 225 0 min 0 W/m 2,4 C -6,6 C 33,8 km/h (5 Bft)
01.02.2018 21:57 3,3 C 93 % 993,7 hPa 0,0 l/m 18,9 km/h (3 Bft) SW 231 0 min 0 W/m 2,3 C -4,9 C 29,0 km/h (5 Bft)
01.02.2018 22:00 3,3 C 93 % 993,7 hPa 0,0 l/m 20,4 km/h (4 Bft) SW 221 0 min 0 W/m 2,3 C -5,5 C 29,0 km/h (5 Bft)
01.02.2018 22:03 3,3 C 93 % 993,7 hPa 0,0 l/m 19,2 km/h (3 Bft) SW 215 0 min 0 W/m 2,3 C -5,0 C 30,6 km/h (5 Bft)
01.02.2018 22:06 3,4 C 93 % 993,6 hPa 0,0 l/m 21,3 km/h (4 Bft) SW 230 0 min 0 W/m 2,4 C -5,8 C 30,6 km/h (5 Bft)
01.02.2018 22:09 3,4 C 93 % 993,7 hPa 0,0 l/m 21,1 km/h (4 Bft) S-SW 207 0 min 0 W/m 2,4 C -5,7 C 35,4 km/h (5 Bft)
01.02.2018 22:12 3,3 C 93 % 993,7 hPa 0,0 l/m 21,1 km/h (4 Bft) S-SW 192 0 min 0 W/m 2,3 C -5,8 C 30,6 km/h (5 Bft)
01.02.2018 22:15 3,3 C 93 % 993,7 hPa 0,0 l/m 23,6 km/h (4 Bft) SW 223 0 min 0 W/m 2,3 C -6,8 C 45,1 km/h (6 Bft)
01.02.2018 22:18 3,3 C 93 % 993,7 hPa 0,0 l/m 23,6 km/h (4 Bft) S-SW 201 0 min 0 W/m 2,3 C -6,8 C 41,8 km/h (6 Bft)
01.02.2018 22:21 3,3 C 93 % 993,6 hPa 0,0 l/m 20,4 km/h (4 Bft) S 175 0 min 0 W/m 2,3 C -5,5 C 32,2 km/h (5 Bft)
01.02.2018 22:24 3,3 C 93 % 993,7 hPa 0,0 l/m 20,3 km/h (4 Bft) S-SW 198 0 min 0 W/m 2,3 C -5,5 C 30,6 km/h (5 Bft)
01.02.2018 22:27 3,3 C 93 % 993,7 hPa 0,0 l/m 19,2 km/h (3 Bft) S-SW 209 0 min 0 W/m 2,3 C -5,0 C 30,6 km/h (5 Bft)
01.02.2018 22:30 3,4 C 93 % 993,7 hPa 0,0 l/m 19,0 km/h (3 Bft) S-SW 209 0 min 0 W/m 2,4 C -4,8 C 27,4 km/h (5 Bft)
01.02.2018 22:33 3,4 C 93 % 993,7 hPa 0,0 l/m 20,3 km/h (4 Bft) S-SW 198 0 min 0 W/m 2,4 C -5,4 C 30,6 km/h (5 Bft)
01.02.2018 22:36 3,4 C 93 % 993,7 hPa 0,0 l/m 20,5 km/h (4 Bft) S-SW 210 0 min 0 W/m 2,4 C -5,4 C 32,2 km/h (5 Bft)
01.02.2018 22:39 3,5 C 93 % 993,8 hPa 0,0 l/m 24,8 km/h (4 Bft) SW 222 0 min 0 W/m 2,5 C -6,9 C 38,6 km/h (6 Bft)
01.02.2018 22:42 3,5 C 93 % 993,7 hPa 0,0 l/m 22,3 km/h (4 Bft) SW 217 0 min 0 W/m 2,5 C -6,0 C 29,0 km/h (5 Bft)
01.02.2018 22:45 3,6 C 93 % 993,7 hPa 0,0 l/m 19,8 km/h (3 Bft) S-SW 207 0 min 0 W/m 2,6 C -4,9 C 32,2 km/h (5 Bft)
01.02.2018 22:48 3,6 C 93 % 993,7 hPa 0,0 l/m 19,6 km/h (3 Bft) SW 232 0 min 0 W/m 2,6 C -4,8 C 27,4 km/h (5 Bft)
01.02.2018 22:51 3,6 C 93 % 993,8 hPa 0,0 l/m 21,0 km/h (4 Bft) SW 231 0 min 0 W/m 2,6 C -5,4 C 30,6 km/h (5 Bft)
01.02.2018 22:54 3,6 C 93 % 993,8 hPa 0,0 l/m 21,9 km/h (4 Bft) SW 233 0 min 0 W/m 2,6 C -5,7 C 37,0 km/h (5 Bft)
01.02.2018 22:57 3,6 C 94 % 993,8 hPa 0,0 l/m 21,2 km/h (4 Bft) S-SW 205 0 min 0 W/m 2,7 C -5,5 C 32,2 km/h (5 Bft)
01.02.2018 23:00 3,6 C 94 % 993,8 hPa 0,0 l/m 18,4 km/h (3 Bft) S-SW 212 0 min 0 W/m 2,7 C -4,3 C 29,0 km/h (5 Bft)
01.02.2018 23:03 3,6 C 94 % 993,8 hPa 0,0 l/m 21,0 km/h (4 Bft) SW 217 0 min 0 W/m 2,7 C -5,4 C 32,2 km/h (5 Bft)
01.02.2018 23:06 3,6 C 94 % 993,8 hPa 0,0 l/m 21,7 km/h (4 Bft) SW 232 0 min 0 W/m 2,7 C -5,7 C 32,2 km/h (5 Bft)
01.02.2018 23:09 3,7 C 94 % 993,8 hPa 0,0 l/m 20,0 km/h (4 Bft) SW 226 0 min 0 W/m 2,8 C -4,9 C 30,6 km/h (5 Bft)
01.02.2018 23:12 3,7 C 94 % 993,8 hPa 0,0 l/m 20,7 km/h (4 Bft) SW 224 0 min 0 W/m 2,8 C -5,1 C 32,2 km/h (5 Bft)
01.02.2018 23:15 3,7 C 94 % 993,8 hPa 0,0 l/m 21,9 km/h (4 Bft) SW 234 0 min 0 W/m 2,8 C -5,6 C 32,2 km/h (5 Bft)
01.02.2018 23:18 3,7 C 94 % 993,8 hPa 0,0 l/m 20,7 km/h (4 Bft) SW 228 0 min 0 W/m 2,8 C -5,1 C 29,0 km/h (5 Bft)
01.02.2018 23:21 3,7 C 94 % 993,8 hPa 0,0 l/m 22,3 km/h (4 Bft) S-SW 211 0 min 0 W/m 2,8 C -5,8 C 32,2 km/h (5 Bft)
01.02.2018 23:24 3,8 C 94 % 993,7 hPa 0,0 l/m 24,1 km/h (4 Bft) SW 214 0 min 0 W/m 2,9 C -6,3 C 32,2 km/h (5 Bft)
01.02.2018 23:27 3,7 C 94 % 993,7 hPa 0,0 l/m 23,1 km/h (4 Bft) SW 234 0 min 0 W/m 2,8 C -6,0 C 37,0 km/h (5 Bft)
01.02.2018 23:30 3,7 C 94 % 993,8 hPa 0,0 l/m 24,0 km/h (4 Bft) W-SW 242 0 min 0 W/m 2,8 C -6,4 C 37,0 km/h (5 Bft)
01.02.2018 23:33 3,7 C 94 % 993,8 hPa 0,0 l/m 21,5 km/h (4 Bft) W-SW 238 0 min 0 W/m 2,8 C -5,5 C 32,2 km/h (5 Bft)
01.02.2018 23:36 3,7 C 94 % 993,8 hPa 0,0 l/m 21,9 km/h (4 Bft) SW 219 0 min 0 W/m 2,8 C -5,6 C 29,0 km/h (5 Bft)
01.02.2018 23:39 3,8 C 94 % 993,9 hPa 0,0 l/m 20,5 km/h (4 Bft) S-SW 210 0 min 0 W/m 2,9 C -4,9 C 27,4 km/h (5 Bft)
01.02.2018 23:42 3,8 C 94 % 993,9 hPa 0,0 l/m 23,6 km/h (4 Bft) SW 232 0 min 0 W/m 2,9 C -6,1 C 33,8 km/h (5 Bft)
01.02.2018 23:45 3,8 C 94 % 993,9 hPa 0,0 l/m 24,6 km/h (4 Bft) SW 219 0 min 0 W/m 2,9 C -6,4 C 40,2 km/h (6 Bft)
01.02.2018 23:48 3,8 C 94 % 993,9 hPa 0,0 l/m 21,4 km/h (4 Bft) SW 233 0 min 0 W/m 2,9 C -5,3 C 32,2 km/h (5 Bft)
01.02.2018 23:51 3,8 C 94 % 994,0 hPa 0,0 l/m 23,8 km/h (4 Bft) S-SW 202 0 min 0 W/m 2,9 C -6,2 C 35,4 km/h (5 Bft)
01.02.2018 23:54 3,8 C 93 % 994,0 hPa 0,0 l/m 22,1 km/h (4 Bft) SW 230 0 min 0 W/m 2,8 C -5,5 C 38,6 km/h (6 Bft)
01.02.2018 23:57 3,8 C 93 % 994,0 hPa 0,0 l/m 23,4 km/h (4 Bft) SW 227 0 min 0 W/m 2,8 C -6,0 C 33,8 km/h (5 Bft)
_ Min-Zeit 04:54 15:36 04:03 - 17:03 - - - - 04:54 11:12 17:03
Minimum _ 2,3 C 89 % 992,3 hPa - 12,9 km/h (3 Bft) - - - - 1,0 C -8,1 C 20,9 km/h (4 Bft)
_ Max-Zeit 12:24 07:27 23:51 07:36 13:06 - - 08:27 11:54 12:24 17:03 19:33
Maximum _ 4,3 C 94 % 994,0 hPa 0,2 l/m 28,3 km/h
W-SW (5 Bft)
- - 3 min 352 W/m 3,0 C -1,4 C 46,7 km/h
S-SO (6 Bft)
Durchschnitt _ 3,2 C 91 % 993,2 hPa #0,6 l/m 20,1 km/h (4 Bft) SW - #42 min. 66 W/m 2,0 C -5,4 C 31,0 km/h (5 Bft)
2018 Cux-Wetter.de -Die Nutzung der Wetterdaten nur mit ausdrcklicher Genehmigung